ECMWFFLT2_925_thetae_000.txt.gz
Theta_e
343 343 343 343 341 340 342 342 341 341 339 335 335 336 334 334 335 337 339 339 338 339 338 337 336 334 331 332 329 329 328 325 323 321 319 319 323 330 331 327 325 325 326 327 326 327 326 321 323 328 328 327 327 331 333 333 331 331 332 330 331 330
342 342 342 341 342 341 341 341 340 341 340 338 336 336 339 338 338 339 339 339 338 339 339 336 337 335 332 333 329 327 330 328 325 323 321 320 321 327 331 329 327 325 324 324 323 325 326 322 323 327 328 328 329 332 333 333 332 332 331 331 332 327
341 342 342 342 342 341 341 343 341 341 341 342 340 338 341 341 339 340 340 339 338 338 337 337 338 336 332 333 331 325 327 329 328 326 324 324 322 325 330 329 328 327 325 325 323 326 328 327 326 327 329 329 330 332 332 334 333 331 331 330 331 325
340 341 342 342 343 342 342 343 342 343 343 343 343 341 342 341 339 340 340 337 337 338 337 338 336 333 332 332 332 327 326 328 329 328 325 327 327 325 328 329 329 329 327 327 327 328 327 328 329 328 330 331 330 331 332 333 332 332 331 330 330 324
339 340 341 341 341 342 342 342 342 343 343 343 342 342 342 341 340 340 341 337 336 338 336 337 336 334 334 335 335 334 332 332 332 331 328 329 331 327 328 329 329 329 330 331 330 329 327 328 329 328 330 331 330 331 331 332 332 332 332 332 330 325
338 338 340 339 339 339 340 341 342 342 342 341 340 341 342 341 341 341 341 338 337 337 333 335 337 335 336 337 337 336 336 337 335 333 331 331 332 330 329 331 330 329 331 332 331 330 329 329 329 328 329 330 330 330 331 331 331 332 331 333 330 326
338 338 339 338 338 338 338 338 340 341 340 340 340 340 341 340 341 341 341 340 339 337 334 334 335 335 337 337 338 337 337 337 336 334 334 331 330 330 329 330 331 330 330 331 331 331 330 329 329 329 328 330 330 330 330 331 331 332 332 332 330 327
337 338 338 338 338 339 338 337 338 339 339 339 339 339 340 339 339 341 340 339 339 338 336 334 333 334 337 337 337 338 337 337 335 332 333 332 329 330 329 328 330 331 331 330 330 330 330 329 329 329 328 329 330 330 330 330 330 331 331 332 331 328
336 336 337 337 336 337 337 338 337 337 339 338 338 338 339 339 339 339 339 338 338 337 337 335 333 334 337 338 338 338 336 337 336 331 332 332 329 329 328 328 329 330 331 330 330 330 330 330 329 330 329 328 330 329 330 330 330 331 330 331 332 328
334 335 335 335 334 334 334 336 336 338 339 337 338 338 337 338 339 338 337 337 337 336 336 336 336 336 337 337 338 338 336 336 334 332 332 331 330 330 329 328 328 328 330 330 329 329 329 329 330 329 329 328 329 329 330 330 329 329 329 330 331 330
334 335 334 332 333 333 333 333 334 337 338 337 338 337 335 338 339 337 337 337 337 336 337 338 338 338 337 337 337 338 337 335 333 332 331 331 331 330 329 328 326 327 328 329 329 329 329 329 329 329 329 329 328 329 329 329 329 329 329 329 330 330
332 336 334 330 330 331 332 332 333 335 337 337 337 337 336 338 338 336 336 336 337 337 338 339 339 338 336 336 337 339 337 335 334 332 330 330 332 330 328 327 327 327 327 328 329 329 329 329 328 329 329 329 328 329 329 329 329 329 329 328 329 329
332 334 333 330 329 329 331 332 332 333 336 337 337 337 337 337 335 334 334 335 335 336 337 338 339 338 336 337 338 339 337 336 334 332 330 330 332 332 328 328 328 327 328 329 330 330 329 329 329 329 331 330 329 328 328 328 329 329 329 328 328 328
333 333 332 330 329 329 330 330 331 332 334 335 335 336 336 336 335 334 334 335 335 335 337 338 338 338 338 337 337 338 337 336 334 332 331 330 331 332 329 329 329 328 329 329 330 330 330 329 329 330 331 331 330 329 328 328 329 329 329 329 329 329
334 333 332 331 330 330 329 329 330 331 331 332 332 333 336 336 335 334 334 335 335 336 336 336 337 337 338 337 337 338 337 336 335 333 332 332 331 331 330 332 331 329 330 329 330 330 329 330 331 331 330 331 330 330 330 328 328 329 329 329 328 328
335 334 333 331 330 330 330 329 329 329 329 329 329 330 333 333 333 333 333 333 334 333 333 334 335 336 336 336 337 337 337 336 335 333 332 332 331 331 332 333 332 332 331 330 330 329 329 330 330 330 330 330 330 330 330 329 328 328 328 327 327 327
336 335 332 329 328 329 329 328 328 327 327 327 327 328 329 329 329 331 332 333 333 333 332 333 334 335 336 336 336 336 336 336 335 333 333 332 331 331 331 332 331 332 332 331 330 329 331 331 329 329 329 329 330 330 329 328 328 328 327 326 326 327
337 334 330 328 327 328 328 327 327 326 326 326 327 327 326 327 328 329 330 332 333 333 333 334 334 334 334 335 334 334 335 335 334 333 333 332 332 331 329 328 327 328 329 328 327 328 330 331 330 329 329 329 329 330 329 329 329 328 328 327 325 325
335 330 327 327 327 326 325 325 325 325 325 325 325 325 326 326 326 327 328 329 330 330 330 330 331 332 332 333 333 333 333 333 333 332 333 332 332 330 329 329 327 326 327 327 326 327 327 328 329 329 329 329 328 328 329 329 330 329 328 327 327 327
332 327 326 326 325 323 321 322 323 323 324 324 325 325 325 325 325 325 326 327 327 326 327 327 328 328 329 330 331 331 330 330 330 330 330 331 331 330 330 331 330 329 330 330 328 327 327 327 328 327 326 327 327 327 328 328 329 329 329 328 329 329
330 326 325 324 323 321 320 321 321 321 322 322 322 323 323 323 324 324 324 323 322 322 322 324 325 326 327 327 329 330 330 329 329 329 329 329 330 330 330 331 330 330 330 331 330 328 328 328 328 328 328 327 327 326 326 327 327 327 329 329 330 331
329 325 324 324 321 321 321 321 320 320 319 319 321 321 321 322 322 322 322 320 320 319 320 323 324 324 325 325 326 327 328 329 329 330 329 328 327 328 328 329 329 329 329 330 329 328 328 328 329 329 330 329 329 328 326 326 326 327 329 329 329 330
328 325 325 324 320 320 321 321 321 319 318 319 319 321 320 321 321 321 320 320 320 320 321 322 323 322 323 324 324 325 326 327 328 328 328 328 327 327 329 329 329 329 329 329 328 329 328 329 329 328 329 330 330 330 329 327 328 328 327 327 327 328
328 325 325 323 321 321 320 320 321 320 319 319 318 318 319 320 321 321 320 319 320 321 321 321 322 322 321 321 322 323 323 324 325 326 326 326 326 327 327 328 328 328 328 328 328 328 329 329 328 328 330 331 330 329 331 331 331 327 322 324 326 326
327 325 324 322 322 321 318 318 319 318 318 317 317 319 319 320 321 321 319 318 319 320 320 321 321 321 321 320 321 323 322 322 323 324 324 323 324 324 325 326 327 327 327 328 328 329 329 329 329 329 330 331 329 330 331 330 331 329 323 323 324 324
326 325 323 322 322 319 317 318 317 315 315 315 316 318 319 319 320 320 319 318 319 320 320 321 321 320 320 319 320 321 322 321 321 322 322 322 321 321 322 323 325 326 327 328 328 329 330 329 330 331 330 330 330 330 331 328 329 330 326 324 323 324
326 323 323 322 321 319 318 318 317 314 314 315 315 317 318 319 319 318 318 318 319 321 321 321 321 320 319 319 319 320 321 320 320 320 320 320 320 320 320 320 322 324 324 325 326 327 328 327 327 330 330 331 331 329 329 329 328 329 328 327 326 325
324 322 323 323 320 319 318 318 318 316 314 314 316 317 317 318 318 318 318 319 319 320 321 320 320 320 320 319 318 317 317 317 316 315 316 317 318 319 319 320 320 322 322 323 323 324 325 325 325 327 328 329 328 327 328 330 328 328 329 328 328 327
323 321 323 322 320 320 319 318 318 316 314 314 316 316 316 317 318 318 318 318 318 319 319 319 318 319 318 316 314 313 313 312 312 311 311 312 314 315 317 318 319 320 320 321 321 321 322 322 322 323 324 325 325 324 326 328 327 326 327 327 327 328
323 321 323 322 319 320 320 319 318 316 315 314 315 315 315 317 318 319 318 318 318 318 318 317 317 317 315 313 313 313 312 312 311 310 310 310 311 312 313 315 316 317 318 319 319 319 320 320 320 321 321 321 321 322 323 324 323 323 324 324 324 325
323 320 322 321 320 320 321 320 319 317 316 315 315 315 316 318 318 318 318 318 317 318 317 316 316 316 314 314 314 313 312 312 311 311 310 310 310 310 311 312 313 314 315 316 316 316 316 317 318 318 318 318 318 319 320 320 320 320 320 321 321 321
323 321 322 321 320 321 321 321 319 318 317 316 317 316 316 318 318 318 318 317 317 317 318 317 316 316 314 314 314 314 313 312 311 311 310 310 310 310 310 311 311 311 312 313 313 313 313 313 314 315 315 315 315 316 317 317 317 318 318 319 318 319
323 322 321 321 320 321 322 322 320 320 317 316 317 317 316 318 318 317 317 317 317 316 317 317 316 316 315 314 315 315 314 313 312 311 310 310 310 310 310 310 311 311 311 311 311 311 311 311 311 311 311 312 312 313 314 314 314 316 316 316 316 317
324 322 322 321 321 321 322 322 320 320 319 317 317 317 316 317 318 317 317 317 316 315 316 317 317 317 315 315 315 316 315 313 312 311 311 310 310 310 310 310 310 311 311 311 310 310 310 310 309 309 309 309 309 310 311 311 312 313 313 313 315 315
324 324 323 322 321 321 321 322 321 321 321 318 316 316 316 316 318 318 317 317 316 315 316 316 317 318 316 315 316 316 316 314 313 312 311 311 310 310 310 309 310 311 311 310 310 310 310 309 308 308 307 307 308 308 308 309 309 310 310 311 312 313
323 324 324 323 323 321 320 322 323 323 323 322 319 317 316 316 318 319 318 317 316 315 315 315 316 318 318 317 317 317 316 316 314 313 312 311 311 310 310 310 310 311 311 310 311 310 310 310 309 309 308 307 307 307 307 307 308 309 309 310 310 311
323 324 325 324 323 322 322 323 324 324 323 323 322 320 318 318 318 318 319 318 317 316 315 315 316 318 318 318 317 317 317 316 315 313 312 311 311 310 310 310 310 310 310 310 311 310 310 310 309 309 308 307 307 308 307 307 308 308 309 309 310 310

ECMWFFLT2_925_thetae_003.txt.gz
Theta_e
344 342 342 343 343 343 339 338 339 338 340 338 334 335 337 336 338 340 337 336 337 339 338 334 334 335 333 331 331 329 327 325 323 322 321 321 324 328 329 329 329 329 329 328 329 330 329 327 326 327 327 328 328 330 334 334 331 330 330 328 329 334
342 343 342 341 341 342 339 340 341 340 341 338 337 338 337 337 339 340 339 338 339 340 339 337 336 335 334 332 332 331 327 325 324 322 320 319 321 325 329 328 327 326 327 327 327 329 330 326 325 327 326 326 328 332 334 333 332 330 330 329 331 332
340 341 340 339 339 341 340 340 341 340 340 337 337 337 337 339 338 338 339 339 339 338 338 339 338 336 335 333 332 329 326 326 325 324 323 323 322 324 327 328 327 325 325 324 325 326 329 328 325 325 326 326 329 333 333 333 333 331 330 330 331 328
340 340 339 341 341 341 340 341 341 340 340 338 337 337 338 340 337 336 339 338 336 336 337 339 337 336 335 334 333 328 325 326 326 327 325 327 328 326 326 328 328 326 326 326 325 326 327 328 327 326 328 329 330 332 332 333 332 331 331 329 330 325
343 342 340 340 341 340 341 341 340 340 340 339 339 339 338 339 337 336 338 337 335 335 335 337 336 335 333 332 334 332 330 330 329 330 328 329 332 330 329 330 330 329 329 329 328 328 327 327 328 327 329 331 331 332 332 333 332 332 332 331 331 324
342 343 342 340 340 340 339 338 338 338 338 338 337 338 337 337 336 336 337 336 336 335 335 335 334 334 334 333 335 334 334 333 333 333 331 331 332 331 331 332 332 331 331 331 330 330 329 328 328 327 328 330 331 332 332 332 332 333 332 333 331 322
339 341 342 340 340 340 339 338 338 338 338 337 336 335 337 337 336 337 337 335 336 336 334 333 334 334 334 335 335 334 334 335 334 334 334 333 332 331 330 331 332 331 331 332 331 331 330 329 329 328 327 329 330 331 331 332 331 332 332 333 332 323
338 340 340 338 339 340 339 339 339 340 339 338 338 336 336 336 337 338 337 336 337 336 334 333 333 334 334 335 335 335 335 335 334 334 335 335 333 331 330 330 331 332 331 331 330 331 331 330 330 329 328 328 329 330 331 332 332 332 332 333 332 326
336 337 337 336 337 339 339 339 339 340 339 339 340 338 337 336 336 337 337 337 337 336 337 335 333 333 334 335 335 335 334 334 335 335 335 333 331 331 330 330 330 331 331 331 330 330 330 330 330 330 329 328 329 330 330 331 332 332 332 332 332 329
333 333 332 333 334 336 337 338 339 340 339 339 339 339 339 338 336 336 337 337 337 338 339 337 335 334 334 335 335 335 334 333 335 335 335 333 331 331 331 330 330 330 331 331 331 329 329 330 330 330 330 330 328 329 330 331 332 332 332 331 332 331
330 332 330 331 331 332 334 334 336 338 338 338 338 339 339 338 337 335 336 336 337 338 338 337 335 335 335 334 334 334 333 332 335 336 335 333 333 332 332 331 330 329 330 330 330 329 329 329 330 330 330 330 329 329 330 331 331 331 331 331 332 332
330 331 330 330 330 330 331 330 332 334 337 338 338 338 337 337 336 336 337 337 338 337 337 336 335 334 334 334 334 334 333 332 334 336 335 334 334 333 332 330 329 329 329 329 329 330 330 330 329 330 330 330 330 329 330 330 331 331 331 330 331 332
330 330 330 330 329 330 330 330 330 331 335 338 338 337 337 337 336 337 337 338 338 337 336 336 335 335 333 333 334 334 335 335 336 335 334 335 334 332 331 330 328 328 329 329 330 330 330 330 329 329 330 331 330 330 329 329 330 331 331 330 329 330
330 329 329 330 329 329 330 330 330 329 333 337 337 337 336 336 336 337 337 337 337 336 336 336 335 334 334 333 333 335 336 336 337 336 334 334 334 332 331 331 329 328 329 330 330 330 330 329 328 329 330 331 330 330 330 330 329 330 330 330 329 329
332 331 329 330 329 330 329 329 330 330 331 333 335 336 336 336 337 336 336 335 335 335 335 335 334 333 334 333 332 334 335 335 336 335 333 333 334 333 333 332 331 330 330 330 330 330 330 329 328 329 329 330 330 329 330 330 329 330 330 330 330 330
334 333 331 331 331 330 330 328 329 330 330 330 330 333 335 335 335 335 334 334 334 335 334 334 334 333 334 334 333 335 335 335 335 334 333 333 333 332 331 331 330 330 332 330 329 331 331 330 328 328 329 329 330 330 330 329 329 329 329 330 329 329
333 334 331 330 330 329 329 328 327 328 328 328 328 329 331 331 333 333 333 332 333 333 333 333 333 334 335 335 334 335 335 334 334 334 334 334 334 332 330 331 330 330 331 330 329 330 331 330 329 329 328 328 328 329 328 328 328 329 328 328 328 327
333 334 331 328 329 329 328 327 326 326 325 326 327 327 327 327 329 332 332 331 331 332 332 333 332 333 335 334 333 334 333 333 334 334 334 334 335 332 330 331 331 331 332 331 330 330 330 330 331 329 328 327 326 326 327 327 327 328 328 327 327 327
334 333 330 328 329 328 327 326 325 325 324 324 325 326 326 326 327 329 331 331 331 331 331 332 332 332 334 333 332 332 332 332 333 333 334 334 333 333 331 331 332 331 330 329 330 331 331 330 331 330 328 326 325 325 326 327 327 327 328 327 327 326
333 330 328 328 327 326 325 324 324 324 324 324 324 325 325 325 326 326 328 329 328 328 329 329 329 330 331 331 331 331 331 331 330 331 333 333 332 333 333 332 331 329 327 326 328 332 332 329 330 330 327 325 326 326 326 326 327 327 328 327 327 328
333 328 326 326 325 324 324 324 323 324 324 323 322 323 323 324 325 325 324 324 324 324 325 326 326 327 327 328 329 330 331 331 331 330 330 331 331 331 332 331 329 330 329 327 328 332 332 329 330 331 328 327 326 324 325 325 325 326 328 327 327 328
332 326 325 325 324 324 323 323 322 322 323 322 321 321 322 323 323 323 322 321 322 322 323 324 325 325 326 325 326 328 330 331 332 331 330 331 331 330 330 330 329 330 329 329 329 332 332 329 330 330 328 328 327 326 326 324 323 325 327 326 326 327
331 324 324 326 323 323 324 324 322 321 320 321 322 322 321 322 321 321 321 322 323 323 324 324 323 323 324 324 325 326 327 328 330 330 331 331 330 330 330 330 330 329 328 329 330 332 331 329 329 330 327 329 330 330 330 327 325 326 325 325 325 326
330 323 324 325 323 323 325 323 322 322 321 319 318 319 320 320 321 321 321 322 322 323 323 323 323 322 322 322 323 324 325 326 326 327 328 329 328 328 330 330 330 330 330 330 330 330 331 330 330 330 328 330 331 330 331 330 329 328 324 325 325 325
329 324 325 324 324 324 323 323 322 321 320 318 317 318 320 321 321 321 320 321 322 322 322 322 322 322 321 321 322 323 323 323 325 325 325 325 324 325 326 327 329 330 330 330 330 329 330 330 330 330 328 329 330 330 332 331 331 329 325 323 324 325
328 325 324 324 325 324 321 321 320 318 317 317 319 321 321 321 320 320 320 321 322 322 323 322 322 321 320 320 321 322 322 322 322 323 323 322 322 322 323 324 326 328 329 329 329 329 328 328 330 330 328 328 329 330 331 330 330 331 328 325 323 325
326 324 324 324 325 322 320 320 318 318 317 317 319 321 321 320 319 319 320 322 322 322 323 322 321 321 321 321 321 321 321 320 320 320 321 321 321 321 321 322 323 324 326 326 327 328 328 327 329 330 329 328 328 328 328 327 328 330 330 329 326 324
326 324 324 324 324 321 320 320 318 318 317 318 320 320 320 319 318 319 320 321 322 322 322 322 322 321 320 319 318 318 318 317 316 316 317 319 320 321 321 322 322 322 322 323 324 326 326 326 327 328 328 327 327 327 326 325 325 327 328 329 329 327
326 324 324 323 323 321 321 320 319 318 317 318 319 318 318 318 318 319 320 320 320 320 320 321 320 318 316 315 315 314 314 314 313 313 313 315 317 319 321 321 322 322 322 322 323 323 323 323 324 325 325 325 325 326 326 325 325 326 327 327 327 327
326 325 324 324 323 322 322 321 320 319 317 319 319 317 318 319 318 319 319 319 319 319 319 319 318 316 315 315 314 314 313 313 313 312 312 313 314 315 317 319 320 321 321 321 321 322 321 321 321 321 321 321 322 323 325 325 324 324 324 325 324 325
326 324 325 324 323 323 322 321 321 319 318 318 319 318 318 319 319 319 319 319 319 318 318 319 317 316 316 316 315 314 314 313 313 313 313 313 313 313 314 316 316 317 317 318 317 318 318 317 318 318 317 317 318 319 320 321 321 320 320 321 321 321
325 324 326 325 323 323 323 321 321 320 318 318 318 318 319 319 319 320 319 319 319 319 318 318 317 316 316 316 315 315 314 314 314 314 313 313 313 313 314 314 315 315 315 315 314 314 314 314 314 314 314 314 314 316 317 317 317 318 318 318 318 317
325 324 326 324 323 324 323 322 322 320 319 318 318 318 319 320 319 319 319 318 318 319 318 318 317 317 317 316 316 316 315 314 314 314 314 314 314 313 313 313 313 314 314 313 313 313 313 313 312 311 312 312 312 313 315 314 314 315 316 316 316 316
326 325 326 324 323 323 324 324 323 321 320 318 319 318 318 320 319 318 319 318 318 318 319 319 318 318 317 317 317 317 315 314 313 314 314 314 314 313 313 313 313 314 313 313 314 313 313 312 312 311 310 310 311 311 312 312 313 313 314 314 315 316
327 325 326 325 323 323 324 324 323 322 321 319 319 319 318 319 319 318 319 318 317 317 319 319 319 319 317 317 318 317 316 314 313 313 313 313 313 313 313 312 312 313 313 312 313 312 312 311 311 311 310 309 310 310 310 310 311 311 312 313 313 314
326 325 326 325 324 323 323 325 324 322 321 320 319 319 318 318 320 319 319 319 318 317 318 319 319 319 317 318 319 318 316 316 314 313 313 313 313 313 313 312 312 313 312 313 313 313 313 312 312 312 310 309 310 311 310 309 309 310 311 312 312 312
326 325 325 325 325 323 323 324 324 322 322 322 320 319 318 318 319 319 319 319 318 317 318 318 320 321 318 318 319 318 318 317 316 315 314 314 313 312 313 312 313 313 313 313 313 312 312 312 311 311 310 309 309 310 309 309 310 310 310 311 312 312

ECMWFFLT2_925_thetae_006.txt.gz
Theta_e
342 342 341 338 337 338 335 334 334 333 336 336 336 337 337 337 337 337 336 336 335 335 335 336 336 335 334 332 331 330 327 326 325 324 323 323 325 327 329 330 330 329 328 328 329 328 327 326 327 327 325 325 325 328 333 332 329 330 329 330 330 331
344 343 342 340 339 340 337 337 337 335 336 336 336 337 337 337 337 338 337 337 336 336 335 335 336 336 335 332 332 332 327 325 323 321 321 320 321 325 328 329 329 328 328 329 329 327 325 325 326 327 326 326 328 330 333 333 330 329 329 329 331 330
344 343 343 342 341 341 338 339 339 338 338 336 337 336 336 336 336 338 338 337 336 335 336 336 336 335 334 331 331 332 328 325 324 322 322 322 320 323 327 328 328 327 327 327 327 327 326 325 323 324 325 326 331 333 333 332 330 330 331 330 330 329
343 343 343 343 342 341 340 340 340 340 339 337 338 336 336 337 336 337 338 337 337 335 335 336 336 335 335 332 332 332 329 326 326 325 324 325 325 325 326 327 328 326 325 324 325 327 329 327 323 322 324 327 332 333 332 332 332 331 331 330 328 327
342 342 341 341 340 341 339 339 341 340 339 339 339 337 337 338 336 336 337 337 339 336 334 336 337 336 336 334 334 331 329 328 329 329 326 328 332 330 328 329 329 326 325 325 325 326 328 329 327 325 327 330 332 332 331 332 332 332 331 330 329 325
340 340 340 339 338 338 339 340 341 341 340 339 339 338 337 337 336 335 335 337 338 337 336 336 337 336 335 334 335 333 332 332 332 333 330 330 333 332 331 332 331 328 328 329 329 329 328 329 329 328 329 330 331 332 332 332 332 333 332 332 330 324
339 339 338 338 337 337 338 339 340 342 341 340 338 337 335 337 338 336 336 337 336 337 337 336 336 335 335 335 334 334 334 334 333 334 333 332 333 332 332 333 332 331 331 331 331 331 330 329 328 327 328 329 330 331 332 332 332 333 333 332 330 324
338 338 337 336 337 336 335 336 336 339 340 339 338 336 337 338 338 337 336 336 335 336 336 335 335 333 334 334 334 334 334 333 334 334 334 333 333 332 331 332 332 331 331 331 331 332 331 330 329 328 328 328 329 330 331 332 332 333 333 333 331 325
338 337 337 336 337 337 335 335 335 336 338 337 337 335 336 338 336 335 336 335 335 336 335 334 335 333 333 335 334 334 334 333 333 333 334 334 333 331 331 330 331 332 331 331 331 331 331 330 330 329 329 328 329 329 330 331 332 333 332 333 332 327
336 336 335 335 336 336 335 336 335 336 336 336 335 334 334 336 335 335 337 335 334 336 335 334 335 335 334 335 335 335 335 333 333 334 334 335 333 331 330 330 331 332 331 331 331 331 330 331 331 331 330 329 329 329 330 331 332 332 332 333 333 329
331 332 332 333 334 335 336 336 335 335 335 335 334 334 334 335 335 336 336 335 334 335 335 334 335 335 334 335 336 336 335 332 333 335 334 334 332 331 331 331 330 330 331 331 331 330 329 330 330 331 331 330 330 328 329 330 331 332 332 332 332 331
330 331 331 331 331 332 331 332 334 335 335 334 333 333 333 334 335 336 336 335 335 334 334 335 337 336 335 335 336 336 334 332 332 332 333 333 332 333 333 331 330 330 330 330 330 331 330 330 330 331 331 331 330 329 329 329 331 331 331 331 332 332
328 329 331 331 330 330 330 330 330 333 335 335 333 332 333 333 334 335 336 336 335 334 334 335 337 336 336 336 335 335 333 333 333 332 333 334 333 333 332 330 329 329 330 330 330 330 330 329 330 330 331 331 331 330 330 330 330 330 331 331 331 332
328 329 330 329 329 330 329 329 329 332 335 336 335 332 332 334 334 335 336 336 335 335 335 336 336 335 335 335 335 335 333 334 335 333 333 334 334 333 332 331 329 328 329 330 330 330 330 330 330 331 330 331 331 330 330 330 329 330 330 330 331 331
328 329 330 329 330 329 329 330 330 332 332 334 335 334 334 334 334 334 334 334 334 334 334 334 335 333 333 335 335 334 333 334 336 334 334 334 333 332 332 332 330 329 330 330 331 331 331 331 330 331 330 330 330 330 330 330 330 330 330 330 330 330
331 330 331 331 331 330 329 329 329 330 329 330 331 332 333 333 333 334 333 333 333 334 333 333 334 333 332 334 334 333 333 334 335 335 334 334 333 332 333 333 331 331 330 330 331 331 332 331 327 327 327 328 328 328 330 330 329 329 329 330 330 330
333 332 332 331 330 329 328 327 327 328 327 328 329 329 331 331 332 333 332 333 333 333 333 333 334 333 333 334 333 333 334 334 334 334 333 333 333 333 333 332 331 331 331 331 330 331 332 330 328 327 326 326 326 327 328 328 328 328 328 328 329 329
333 331 331 329 328 328 328 326 325 325 324 326 327 326 328 330 330 331 331 332 332 331 332 333 332 333 334 333 332 333 334 334 334 335 333 332 332 332 332 331 330 330 331 330 330 331 332 331 331 331 329 327 326 326 326 325 325 327 328 328 328 328
333 330 329 329 329 328 326 325 324 323 322 324 325 324 326 328 328 329 330 330 330 330 330 331 330 330 332 331 331 332 332 332 333 334 334 332 333 332 331 330 330 331 331 331 330 331 331 331 331 331 331 329 326 325 324 324 324 325 326 328 328 328
332 329 328 329 328 326 325 325 325 325 323 324 325 324 325 326 326 328 328 327 328 329 329 329 329 329 329 329 329 330 330 331 331 332 333 332 332 332 331 330 331 331 331 330 329 328 330 330 330 331 330 328 326 325 324 323 323 324 326 327 327 327
330 329 328 327 326 326 326 324 324 325 323 322 322 323 325 325 325 324 323 323 323 325 326 326 327 328 328 328 329 330 330 331 331 331 333 332 331 331 331 330 330 330 329 328 326 325 327 330 330 330 330 327 326 325 323 322 322 322 323 326 327 326
328 328 327 326 326 325 324 323 323 324 323 322 321 322 323 323 322 323 322 322 323 324 324 324 324 325 326 327 328 328 330 332 331 331 332 332 331 331 331 330 330 329 327 327 327 326 328 330 330 330 330 329 327 324 322 322 322 321 321 323 325 325
327 326 327 325 325 325 324 323 321 322 323 324 322 322 322 321 321 322 322 323 324 324 324 323 323 323 324 325 326 327 328 329 330 330 331 331 331 331 331 331 330 328 328 328 328 329 330 329 328 329 328 329 331 329 328 326 324 325 323 322 323 323
326 324 326 324 324 326 324 322 321 320 321 321 320 320 321 321 321 321 322 323 323 323 323 322 322 322 323 323 323 325 326 327 327 328 329 329 329 329 329 330 329 329 329 329 329 328 329 328 328 329 328 329 331 331 332 330 328 327 324 323 323 322
325 324 326 324 325 325 323 323 321 319 317 318 319 320 321 321 321 321 322 323 323 323 322 322 322 321 321 321 322 323 324 325 326 326 326 327 327 327 327 328 329 329 329 329 328 327 328 328 328 328 329 329 330 330 332 331 329 329 324 322 325 325
325 325 324 324 325 324 323 322 320 318 317 318 321 322 321 321 320 321 322 322 323 323 322 321 321 321 321 321 322 322 322 322 323 323 323 323 324 324 325 327 327 328 328 328 328 326 327 327 327 327 328 329 329 329 330 329 331 332 327 324 324 323
325 325 324 325 325 323 322 321 318 317 318 320 323 322 321 320 321 321 322 323 323 323 322 322 321 321 321 321 320 320 319 319 320 320 320 320 321 322 323 324 324 325 326 326 327 326 325 325 326 326 327 327 327 328 328 329 330 332 331 329 327 324
326 325 324 326 324 321 322 319 318 318 319 321 322 321 320 319 320 321 322 323 323 322 322 322 320 319 319 318 317 317 316 315 316 318 319 320 321 322 321 321 322 323 323 324 325 325 325 325 325 325 326 327 326 326 327 327 327 328 329 329 329 328
326 325 325 326 323 321 321 319 319 318 319 322 321 320 319 319 320 321 322 322 321 322 321 319 317 315 315 314 314 314 314 313 313 314 316 318 320 321 321 321 321 321 322 322 323 323 323 323 323 323 324 326 326 327 327 326 326 326 326 327 327 328
326 325 325 325 322 321 321 319 319 319 320 322 320 319 320 319 320 321 321 320 320 320 319 317 315 315 315 314 314 314 313 313 312 312 313 314 317 318 319 320 320 320 320 319 319 319 318 318 318 317 318 321 322 324 325 325 325 324 324 325 325 325
326 325 325 324 322 322 321 319 319 319 320 320 318 319 320 319 320 320 320 319 319 320 318 317 316 316 316 315 314 314 314 314 313 313 313 314 315 315 316 317 316 317 316 316 316 315 315 316 315 313 314 315 316 318 319 319 319 319 319 320 321 320
326 325 325 324 322 323 321 320 320 319 319 320 318 319 320 319 320 319 319 320 319 319 318 317 317 316 316 315 314 314 315 315 314 314 314 314 314 315 315 315 315 315 314 314 313 311 309 311 312 312 313 313 314 315 314 314 315 315 316 317 317 318
327 326 325 324 322 323 322 320 320 319 320 320 319 320 320 320 320 319 320 320 319 319 318 317 317 317 316 316 315 315 315 314 314 314 313 313 313 314 314 314 314 314 313 313 313 311 309 308 308 311 312 311 312 313 312 313 313 314 314 314 315 317
327 326 325 324 323 323 323 321 321 320 319 319 319 319 320 319 320 320 320 320 320 319 318 318 317 317 317 317 316 316 315 314 314 314 315 314 314 314 313 314 315 314 314 314 311 311 311 310 309 308 308 311 311 310 311 311 311 312 313 313 314 315
327 327 326 325 324 324 323 322 322 320 319 319 318 319 321 320 320 320 319 320 319 319 319 319 318 317 317 318 317 316 315 314 315 314 314 313 314 314 313 313 314 313 313 312 310 308 307 309 309 306 307 311 311 308 307 308 310 311 312 312 312 313
328 328 327 325 325 325 324 323 322 320 319 319 318 318 320 320 320 319 320 319 318 320 320 319 319 318 317 318 318 315 315 314 314 313 313 312 312 313 313 312 313 312 312 312 313 313 309 309 309 308 308 311 312 309 306 307 310 310 309 310 311 312
328 328 326 325 325 326 325 324 323 321 320 320 319 318 319 320 320 319 320 319 317 319 320 320 320 318 317 319 318 316 316 315 314 314 314 314 313 313 313 313 313 313 314 313 313 313 312 311 311 310 310 309 311 310 307 308 311 309 308 310 310 311

ECMWFFLT2_925_thetae_009.txt.gz
Theta_e
331 331 331 331 331 332 333 333 332 332 332 333 334 335 336 335 336 335 336 336 336 335 334 334 334 332 331 330 329 328 327 326 325 325 323 322 324 328 331 331 329 328 328 328 327 325 325 324 322 325 330 330 331 332 332 332 330 330 331 330 328 328
334 334 334 335 334 334 335 335 333 335 334 333 335 336 336 336 336 337 336 336 336 335 333 332 332 331 331 330 329 328 327 325 324 322 320 319 321 325 329 330 329 328 328 328 328 327 326 325 322 323 328 328 330 333 333 333 331 330 330 328 328 328
337 337 337 336 336 335 336 336 334 335 335 334 336 336 336 337 337 337 337 335 334 333 333 332 333 333 332 331 329 330 328 324 322 321 320 320 319 322 326 329 329 327 328 328 327 327 326 326 323 322 324 327 330 332 332 332 330 330 329 329 329 326
340 340 338 338 337 337 338 338 335 334 335 335 336 336 337 338 337 338 337 335 334 333 333 333 334 335 334 333 331 332 329 324 324 323 322 323 322 322 324 327 328 327 327 326 325 326 326 325 324 322 325 330 332 331 332 332 331 330 329 328 327 325
342 342 340 339 339 338 338 339 337 334 335 336 336 336 337 339 339 338 338 337 335 334 334 334 334 335 335 334 333 334 331 327 326 326 325 326 328 328 325 326 327 326 325 324 323 325 327 327 324 323 326 331 332 331 331 332 331 330 329 328 325 323
343 343 342 341 340 339 338 339 338 335 335 336 336 335 335 337 338 337 337 337 336 335 335 335 335 335 335 334 333 334 332 330 329 330 329 328 331 332 329 328 326 325 325 324 325 326 328 328 326 326 327 330 332 331 331 332 332 331 331 329 326 323
342 342 341 341 341 340 340 339 338 337 337 336 336 334 334 337 338 335 335 336 337 336 335 335 334 335 335 335 334 333 332 331 329 331 333 331 333 332 331 331 329 326 327 328 328 330 330 329 328 327 327 329 331 331 331 332 332 332 332 331 328 323
341 341 341 341 341 340 340 339 338 338 338 338 337 336 335 336 338 336 335 336 336 336 335 335 334 334 335 334 334 333 333 332 330 331 334 333 333 332 331 332 331 330 330 331 331 331 330 329 329 328 327 328 330 330 331 332 332 332 332 332 330 324
340 340 339 339 340 340 340 340 339 339 339 339 338 338 337 336 337 337 336 335 335 335 335 336 336 336 335 334 334 334 333 333 332 332 333 333 332 331 331 331 331 331 331 330 331 331 330 330 329 328 328 328 329 328 330 332 332 333 332 332 332 326
339 338 338 338 337 338 339 339 338 338 338 339 338 337 337 337 337 338 337 336 335 335 335 335 336 335 333 333 333 333 333 333 333 333 333 333 332 332 332 332 331 331 331 330 330 331 330 330 330 329 329 329 329 328 329 332 332 332 332 332 332 329
338 337 336 336 337 336 337 336 335 336 336 336 336 336 336 336 337 336 335 335 335 335 335 334 334 333 332 334 334 333 334 333 332 333 333 334 333 332 332 331 331 331 331 331 330 330 330 330 330 330 328 328 329 329 329 330 332 332 332 332 331 331
336 336 334 334 334 334 335 335 335 335 336 335 335 335 334 335 335 334 335 335 334 335 334 333 333 333 333 334 335 335 336 335 333 333 334 335 334 332 331 330 330 331 331 330 330 330 330 330 330 330 329 329 330 329 329 329 330 331 332 332 332 331
334 333 333 333 332 332 333 333 334 335 335 335 334 334 334 334 335 335 334 334 333 333 334 333 333 333 333 333 334 335 337 336 335 334 334 334 332 332 331 330 330 330 330 330 331 330 330 330 330 330 330 330 330 330 330 329 329 330 331 332 331 331
332 333 332 333 332 331 332 332 334 335 334 334 333 333 333 333 335 335 333 333 334 333 334 333 333 334 333 333 333 335 336 336 336 334 333 333 332 332 332 330 330 329 330 330 330 330 329 330 329 330 330 330 330 330 330 330 330 330 330 331 331 331
330 330 330 330 330 330 332 333 334 334 333 333 332 332 333 333 335 334 333 334 334 333 333 333 333 333 333 334 334 335 335 335 335 333 332 333 333 332 332 331 330 329 329 329 329 329 330 329 329 330 330 330 330 330 330 330 330 330 330 330 330 331
328 328 328 328 328 330 332 333 333 332 331 331 330 331 333 333 334 333 333 333 333 332 332 333 333 332 333 335 335 334 333 334 334 334 333 333 333 332 331 332 331 329 330 330 329 330 331 330 329 329 329 329 329 329 330 330 329 329 329 330 330 331
328 329 329 328 328 328 329 330 330 330 330 331 331 330 331 332 332 332 331 331 331 331 331 332 332 332 334 335 334 333 333 333 334 334 332 333 333 332 331 332 331 330 330 330 330 331 331 329 328 327 326 327 327 326 328 329 329 329 329 329 329 329
330 329 327 327 327 327 326 326 328 329 330 332 331 330 330 331 331 331 331 331 331 332 331 331 331 332 334 334 332 332 332 333 333 333 332 333 333 332 332 332 331 331 330 330 331 331 331 330 330 328 327 326 325 325 326 326 326 327 328 328 328 329
330 328 327 327 326 325 325 325 325 326 328 331 331 330 330 331 331 331 331 330 331 332 331 331 330 331 333 332 331 332 332 332 333 333 332 333 332 332 333 332 331 331 331 330 331 331 330 331 331 330 329 327 325 325 324 324 324 325 325 327 328 328
329 327 328 328 325 324 324 323 322 323 326 329 330 330 329 329 329 329 329 330 330 330 330 330 329 329 330 330 331 332 333 333 333 333 333 332 332 332 332 332 331 330 330 330 330 331 330 330 331 330 330 328 326 325 323 322 322 323 323 325 327 327
326 325 327 326 324 323 324 323 322 324 325 326 328 328 327 327 326 326 327 327 327 327 328 328 328 327 327 328 329 330 331 331 331 332 333 333 332 332 332 331 331 330 331 330 330 329 329 329 330 330 330 328 326 325 323 321 320 320 321 323 326 327
323 323 326 324 325 324 324 325 322 323 325 325 326 324 322 322 322 322 323 323 324 323 324 327 327 327 327 326 327 330 330 330 330 331 332 333 332 332 331 331 331 330 330 330 328 327 327 328 329 329 329 328 327 325 322 322 322 321 320 320 323 325
321 323 326 325 326 325 324 324 322 322 323 323 322 321 319 320 321 322 323 324 323 322 322 324 325 326 328 326 324 328 330 330 330 330 331 331 332 331 330 330 330 329 329 329 327 326 327 329 329 329 328 328 330 330 329 326 325 326 324 321 321 323
320 324 327 325 325 323 323 323 322 322 322 321 321 321 321 321 321 322 323 323 323 322 321 322 323 325 327 326 325 326 328 328 328 329 329 329 330 330 330 329 329 329 328 327 327 327 329 328 328 329 328 327 328 331 334 330 326 326 323 322 322 322
322 326 327 325 323 321 322 323 322 321 321 321 321 321 321 321 321 322 323 322 322 321 321 321 322 321 323 324 326 326 327 326 326 327 328 328 329 329 330 330 329 328 327 327 328 328 328 328 328 328 328 328 328 330 334 330 328 329 323 321 323 323
323 326 326 324 323 321 321 321 319 319 321 322 321 321 321 321 322 322 323 322 321 321 321 321 321 321 321 321 323 324 324 324 322 323 325 326 327 328 329 329 328 329 329 328 328 327 327 327 328 328 327 328 328 329 331 328 330 332 326 323 324 323
323 326 324 324 324 322 320 319 317 318 320 321 320 320 322 322 321 321 322 322 321 321 321 321 320 321 321 320 319 319 318 319 320 321 323 324 325 325 326 327 327 327 328 328 328 327 326 326 327 328 327 328 327 327 328 328 329 331 330 329 327 325
323 325 325 324 324 322 320 318 316 317 319 320 320 320 321 321 320 321 322 322 321 321 320 320 320 320 320 317 316 317 318 319 320 320 321 321 322 323 323 324 325 325 326 326 326 326 325 326 326 326 326 327 327 326 326 327 326 326 329 332 330 328
324 325 325 325 324 322 319 315 316 319 322 321 320 320 320 320 320 321 321 321 321 319 318 316 316 317 317 315 313 314 316 318 318 319 320 320 320 321 321 322 323 323 323 323 325 325 324 323 323 323 325 326 326 326 326 326 326 325 326 330 331 329
326 325 326 324 324 320 315 315 318 322 322 320 320 320 320 320 322 322 322 321 319 316 315 314 313 314 314 314 312 312 313 314 315 315 317 319 320 320 320 320 320 320 322 321 321 321 319 318 317 317 320 324 325 325 325 325 324 324 324 324 327 324
327 325 326 325 323 319 314 316 320 322 321 319 319 319 320 321 322 321 320 319 317 315 315 315 314 314 313 312 312 312 313 314 313 313 314 316 317 317 317 317 316 316 317 318 319 318 316 315 315 314 316 319 320 319 318 318 317 318 318 318 321 320
327 326 326 325 323 318 316 318 320 321 320 319 318 318 320 322 321 319 318 317 316 315 315 315 315 314 313 312 312 313 313 313 313 314 315 315 315 315 315 314 313 312 311 311 313 314 313 312 313 313 314 314 315 314 313 313 313 314 315 315 316 317
327 327 327 324 322 319 316 319 321 321 320 318 318 318 320 321 320 318 318 318 317 316 315 316 314 312 313 313 313 312 313 313 314 314 314 314 313 314 313 312 311 310 306 304 306 307 307 309 311 312 313 313 313 312 311 312 313 313 314 314 314 314
327 326 327 324 323 321 317 320 322 320 319 318 318 318 319 319 319 318 319 318 317 316 314 315 314 312 313 314 314 312 312 313 313 313 313 312 312 312 311 310 310 309 306 303 303 303 303 305 308 310 311 311 310 310 310 311 311 312 313 313 313 312
326 326 327 324 323 323 318 320 322 319 318 319 318 318 318 318 318 319 319 319 318 316 315 315 314 314 314 315 315 313 310 310 311 313 314 314 313 313 313 313 312 310 307 304 303 302 302 303 307 310 310 309 308 307 309 310 310 310 311 311 312 312
326 325 326 324 323 323 319 319 322 320 318 319 318 318 319 318 319 320 319 319 318 317 317 316 315 314 315 317 315 313 310 308 309 311 314 314 313 314 313 311 311 310 309 310 308 305 305 306 308 310 311 310 309 307 307 309 310 308 308 310 311 311
325 325 325 324 322 323 321 320 322 321 318 319 319 318 319 319 319 319 319 319 319 318 318 318 317 315 316 317 315 311 309 308 307 308 312 313 313 312 311 309 309 311 313 314 313 310 309 308 308 309 310 310 310 308 306 307 308 307 307 309 310 310

ECMWFFLT2_925_thetae_012.txt.gz
Theta_e
330 330 330 331 331 332 332 332 333 332 332 332 332 332 333 333 333 334 334 335 335 336 336 334 332 330 330 329 329 328 327 326 326 325 325 326 328 331 332 330 327 326 327 325 323 322 323 324 320 324 331 329 330 332 332 333 332 331 331 329 327 327
330 330 329 330 331 331 332 332 331 331 332 333 334 334 334 334 335 335 335 334 334 335 334 333 332 330 330 329 328 327 326 326 325 323 322 322 325 329 330 330 328 327 327 326 324 322 323 323 323 327 330 327 329 332 332 331 332 331 330 327 327 326
330 330 329 330 330 332 333 332 332 331 333 334 335 336 335 336 336 336 335 334 334 333 332 333 331 330 330 329 328 327 326 324 323 320 319 319 321 325 328 329 328 327 328 328 326 323 323 323 324 328 328 327 329 333 331 331 331 330 329 327 327 325
331 331 330 330 330 332 333 331 332 333 334 335 337 337 336 336 336 335 335 334 333 332 332 332 332 332 332 330 329 329 327 324 322 321 320 320 320 324 327 328 328 326 327 327 326 323 322 322 323 325 326 328 331 332 331 331 331 329 329 327 325 323
332 332 331 332 330 331 333 332 333 334 335 336 338 337 336 336 336 336 335 334 333 332 331 331 333 334 333 331 329 330 328 324 323 323 322 323 323 324 326 327 327 326 325 325 324 324 324 323 322 325 329 330 331 331 331 331 330 329 328 327 324 322
334 335 334 333 332 332 332 333 334 335 336 337 338 338 337 337 336 336 335 333 332 332 332 332 333 334 334 332 330 331 331 327 325 326 325 325 327 328 326 325 325 325 324 323 323 325 327 326 324 326 330 331 330 330 331 330 330 330 329 328 326 322
337 337 338 336 335 334 333 334 335 336 338 339 339 338 338 338 338 337 336 334 333 333 333 333 334 334 334 333 331 332 332 329 327 327 328 328 329 332 330 328 326 324 324 323 324 327 328 328 326 325 327 330 330 330 331 331 330 330 329 329 326 322
340 340 340 339 337 336 335 335 337 338 338 338 338 338 337 338 338 336 336 336 335 334 334 334 334 334 333 333 332 333 333 331 328 328 330 330 330 332 332 331 328 325 325 326 328 330 330 329 328 327 327 328 330 331 331 331 330 330 330 329 327 322
341 342 341 340 339 338 337 337 338 339 339 338 338 337 336 336 336 336 336 337 337 336 335 335 334 334 334 334 334 334 333 332 331 329 330 332 332 332 331 331 330 328 328 329 330 331 330 330 328 328 328 329 329 331 331 331 331 331 330 330 330 325
342 342 342 341 340 340 339 338 338 338 339 339 338 338 337 335 334 335 336 337 337 336 335 335 334 334 334 334 334 334 334 333 333 332 331 332 332 332 331 331 331 330 330 330 330 331 331 330 329 328 329 329 329 329 331 332 332 332 331 331 331 328
342 342 341 341 341 340 339 338 338 338 339 339 338 338 337 335 334 336 337 336 335 335 335 334 335 334 334 334 333 333 334 333 333 333 332 332 333 332 331 331 331 331 331 330 330 330 330 330 330 329 329 329 328 329 330 331 332 331 331 331 330 329
342 342 340 340 340 339 339 338 338 338 339 339 338 338 338 336 335 336 336 336 335 335 335 334 334 334 334 333 333 333 333 333 333 333 332 332 333 332 331 331 331 330 331 331 330 330 330 330 330 329 328 329 329 329 330 331 332 331 331 331 331 330
340 340 339 337 338 337 337 338 337 337 337 338 337 337 337 336 335 335 336 335 335 335 335 334 334 334 333 332 333 333 333 333 332 332 333 333 333 333 332 331 330 331 331 331 330 330 330 330 329 330 329 329 329 329 329 331 331 331 331 331 331 331
339 338 337 336 337 336 336 336 335 335 335 336 335 335 335 335 335 335 335 334 335 335 335 335 334 333 333 333 333 334 334 333 333 332 333 334 334 333 332 330 330 331 331 330 330 330 330 330 330 330 330 329 330 330 329 330 330 330 331 331 331 330
337 336 335 335 335 335 336 334 334 334 334 334 334 334 333 333 334 335 335 334 334 334 334 334 333 333 332 333 333 334 335 334 333 333 333 334 334 332 332 331 330 330 330 330 330 330 329 329 330 330 330 330 330 330 330 329 329 330 330 331 331 330
336 334 334 333 332 332 334 334 334 333 333 333 333 333 333 333 334 335 334 333 333 334 333 334 333 332 333 333 333 333 335 334 333 334 333 333 334 333 332 331 329 329 329 329 329 329 329 329 330 329 330 330 330 329 329 329 329 329 329 330 331 330
333 333 332 331 330 330 332 333 333 332 332 332 332 332 332 332 333 334 334 332 333 333 333 334 333 333 333 333 333 333 335 334 333 334 332 333 334 333 332 331 330 329 329 329 329 330 330 329 329 328 328 328 328 327 328 328 328 328 328 329 330 330
331 331 330 330 329 330 330 331 331 332 331 331 331 332 332 332 333 334 333 332 332 332 332 333 332 332 332 333 334 334 334 334 333 333 333 333 334 333 332 332 331 329 329 329 329 330 330 329 328 327 326 326 325 325 326 326 326 326 327 327 328 328
329 329 328 328 329 329 328 328 330 332 331 330 330 330 331 331 332 332 331 331 331 331 331 332 332 331 332 333 334 333 333 333 333 334 334 334 334 333 332 332 331 330 330 330 330 330 329 328 328 327 326 326 325 324 324 324 324 325 325 326 326 326
328 327 327 327 327 327 327 328 330 331 330 330 330 330 330 330 330 330 330 330 331 331 331 331 332 331 332 333 332 332 332 332 333 334 333 334 333 332 333 332 331 330 330 331 331 330 329 329 329 329 328 327 326 325 324 323 322 322 322 324 325 326
327 326 327 326 326 326 326 327 329 331 330 329 329 329 329 329 329 329 330 330 330 330 330 330 329 329 330 331 330 331 332 332 333 333 333 333 332 332 333 332 330 330 330 330 331 330 330 331 329 329 329 328 327 325 323 321 320 320 320 321 324 325
326 326 326 325 324 324 323 325 328 330 329 328 328 327 328 329 329 328 328 328 328 327 328 329 329 328 328 329 329 330 331 331 331 332 333 333 332 332 332 332 331 330 330 329 329 328 329 329 329 329 328 327 326 325 323 322 322 323 321 320 321 324
327 326 325 324 324 322 322 324 326 328 329 328 327 327 326 326 326 326 325 324 324 324 325 327 327 327 326 326 327 328 329 330 329 330 331 332 332 331 331 331 330 330 329 328 327 326 326 328 328 328 327 326 327 327 325 324 324 324 324 322 320 322
328 327 325 323 323 323 322 324 327 328 327 325 324 324 323 323 323 323 322 322 322 322 323 324 325 327 326 324 326 328 328 328 328 329 330 331 332 331 330 330 330 330 330 328 326 326 327 328 328 328 328 326 325 326 328 327 325 324 322 322 321 322
327 327 325 323 323 324 323 324 326 324 323 321 320 321 321 321 322 323 322 322 322 321 322 323 325 327 326 324 326 328 328 327 328 328 329 329 331 331 330 329 329 329 328 328 327 327 328 328 328 327 327 326 325 327 330 327 326 326 322 321 323 322
325 326 325 324 325 325 323 323 324 322 320 320 321 320 320 321 322 322 322 321 321 321 321 322 323 324 325 325 326 326 326 326 326 327 328 327 329 330 330 329 329 329 328 327 327 327 328 328 328 327 326 326 327 328 329 327 327 327 325 323 323 323
324 326 325 325 325 324 323 323 322 321 321 320 320 320 320 321 322 322 321 321 320 320 321 320 320 321 323 325 324 322 322 323 324 326 326 327 328 329 329 328 328 328 328 328 327 328 328 328 328 327 327 326 326 326 326 327 328 329 330 328 325 324
324 326 324 323 323 323 322 322 322 320 320 319 319 320 321 322 322 321 320 320 320 320 320 320 319 319 319 321 320 319 320 322 323 325 325 326 326 326 326 326 327 327 328 328 327 327 327 327 327 327 327 327 326 326 325 326 326 326 329 330 328 326
325 326 322 322 322 322 322 322 321 320 319 320 320 321 321 322 321 321 320 320 320 320 320 320 319 317 316 318 319 319 320 321 322 323 323 324 324 324 324 324 325 325 325 326 326 326 326 325 326 326 326 326 326 326 326 325 325 325 326 328 330 326
325 326 322 321 322 321 321 321 320 319 319 320 321 321 321 321 321 321 320 320 319 319 318 318 317 315 314 316 318 318 318 319 321 321 321 322 322 323 323 323 324 324 324 324 323 322 321 321 322 324 325 326 326 326 325 322 322 323 323 322 325 323
326 325 321 321 320 320 320 319 318 319 319 320 321 320 320 321 321 321 320 318 317 315 314 315 315 314 312 313 314 313 312 314 317 319 319 320 320 321 321 321 322 322 322 322 319 317 316 316 318 321 323 323 322 321 319 317 316 317 317 317 319 318
326 325 323 321 319 320 319 317 318 319 320 321 320 319 319 321 321 320 319 316 314 313 313 313 313 313 312 312 312 311 310 311 314 315 315 316 316 317 318 318 319 321 321 320 317 315 315 315 317 318 318 318 317 316 315 314 313 313 313 313 315 315
326 325 324 322 320 320 318 316 318 321 320 320 320 319 320 321 321 320 317 314 313 314 314 313 312 312 312 312 311 311 311 313 313 311 311 311 312 312 311 310 311 314 315 316 314 313 313 313 314 315 314 313 313 312 312 312 312 313 313 313 313 313
326 325 324 323 320 318 316 316 320 322 320 320 319 318 320 321 321 319 316 314 314 313 313 312 310 310 311 311 311 312 313 314 313 311 310 310 309 307 306 304 304 304 306 308 308 309 310 312 312 312 312 311 311 310 311 311 311 312 312 312 312 312
325 325 324 322 320 317 315 317 320 321 320 319 318 318 320 321 320 318 314 313 313 311 309 309 308 309 310 310 311 313 314 313 312 312 311 310 307 306 305 303 302 302 302 303 304 306 309 310 310 309 308 307 308 309 309 308 308 309 310 312 311 311
325 324 324 323 323 319 316 318 320 320 320 319 317 318 320 321 320 316 313 312 311 309 308 307 307 309 310 310 310 311 312 312 313 313 313 313 310 308 306 304 303 304 304 303 303 305 308 309 309 308 307 307 305 306 307 305 304 304 306 309 311 311
325 325 324 324 324 320 317 318 319 321 320 319 318 318 319 321 319 316 315 314 311 308 307 307 308 309 310 309 307 308 310 312 314 314 313 313 313 310 307 305 305 306 306 306 304 304 306 308 309 309 309 309 308 306 307 307 306 305 305 307 308 309

ECMWFFLT2_925_thetae_015.txt.gz
Theta_e
335 335 334 334 336 337 337 336 337 336 336 335 333 331 330 332 333 333 333 334 334 334 334 332 331 329 330 330 329 329 328 328 327 325 325 327 330 331 330 328 325 325 325 324 325 325 325 323 323 327 329 329 332 334 334 334 332 330 330 329 327 327
333 334 335 335 336 337 337 336 336 334 334 333 332 332 332 333 333 333 333 333 334 335 335 333 331 330 330 329 329 329 328 328 326 323 322 322 326 330 331 328 326 326 326 325 324 324 325 325 325 328 328 328 331 333 334 333 331 331 329 327 326 326
329 332 334 334 335 337 337 335 335 334 333 333 333 334 334 334 333 333 333 334 335 335 335 333 331 331 329 328 329 328 327 327 324 320 319 319 322 327 330 329 327 327 327 326 325 324 325 324 325 327 326 328 332 332 333 332 331 330 328 327 327 326
330 332 332 332 334 336 336 335 334 333 333 333 335 335 334 335 334 333 333 334 335 335 333 333 332 331 330 329 328 328 326 325 322 319 319 319 319 323 328 329 328 327 327 326 326 325 324 324 325 325 325 328 331 331 331 331 330 329 327 327 325 324
331 331 330 330 331 334 335 334 334 333 334 334 336 336 335 335 334 333 333 333 334 334 332 332 332 332 331 330 328 328 327 324 321 320 320 321 321 321 326 329 328 326 325 325 325 325 324 324 324 324 326 328 330 331 331 331 331 329 327 327 324 323
331 329 330 329 330 333 334 333 332 332 334 335 336 337 335 334 334 333 333 333 333 332 332 331 331 331 331 330 329 329 327 324 322 323 323 323 325 325 325 326 327 325 324 324 324 325 325 324 324 325 326 327 328 331 331 330 330 328 327 326 324 323
330 330 329 329 330 332 334 333 331 332 333 334 336 336 335 334 334 334 333 332 332 332 331 330 331 331 333 332 331 330 329 327 325 325 326 325 328 329 328 326 325 324 324 322 322 325 326 326 326 326 326 325 327 330 331 330 330 328 327 326 325 322
331 330 330 330 331 331 334 333 333 335 335 334 336 336 335 334 335 335 334 333 332 332 332 331 331 332 333 333 332 331 331 331 328 327 327 328 329 330 331 330 326 324 323 323 325 328 329 328 327 326 326 326 327 329 331 331 329 328 329 327 325 322
333 331 332 333 333 333 333 335 335 336 336 335 336 335 335 336 336 335 335 334 333 333 332 332 332 333 334 334 333 331 332 333 331 329 328 329 330 330 331 332 329 324 324 326 328 330 330 329 328 327 328 328 328 330 330 331 329 329 329 328 327 323
335 334 335 336 336 335 334 336 336 336 336 336 336 336 336 337 337 336 336 336 336 335 334 334 334 334 334 334 334 333 333 334 333 331 330 330 330 332 331 331 330 326 326 329 330 330 330 330 328 327 328 328 329 330 331 331 330 329 329 329 327 325
339 338 338 338 338 337 336 336 336 337 337 336 336 337 337 337 336 336 336 336 337 337 336 335 334 334 334 334 334 334 334 334 333 332 332 331 331 332 331 331 330 329 329 330 330 330 330 330 329 329 329 329 329 329 330 331 330 329 330 330 328 326
341 340 340 340 339 339 338 338 338 338 337 337 337 337 337 336 335 335 335 335 336 336 336 336 335 335 334 334 334 334 333 333 333 333 333 333 332 332 332 331 330 330 330 330 330 330 330 330 330 330 329 329 329 328 330 331 330 330 330 330 329 328
342 342 341 341 339 340 339 339 339 338 338 337 337 338 337 337 336 335 335 335 335 335 336 335 335 334 334 334 334 333 333 332 333 333 333 333 332 332 332 332 331 330 330 331 331 330 330 330 329 330 329 329 329 329 330 331 331 330 330 330 330 328
342 341 341 340 339 339 339 339 338 338 338 338 338 337 337 337 337 336 336 335 335 335 335 335 334 334 334 334 333 332 332 333 333 333 332 332 332 332 332 332 331 330 331 331 331 330 330 330 329 330 329 329 329 329 330 331 330 330 330 330 330 329
341 341 339 338 337 338 338 337 337 338 338 337 336 336 336 337 336 336 335 335 335 335 335 334 334 334 334 333 333 332 332 333 333 332 332 332 332 332 333 332 331 330 331 330 330 330 330 330 329 330 330 329 329 329 329 330 330 330 330 330 330 329
339 339 337 336 336 336 336 336 336 336 335 335 335 335 334 334 335 334 334 335 334 334 334 334 334 334 333 333 332 332 333 333 333 333 332 332 333 333 333 332 331 330 330 330 329 329 329 329 329 330 330 329 329 329 329 329 329 330 330 330 330 329
337 336 335 335 335 335 335 335 335 333 333 334 333 333 333 333 333 333 334 334 334 333 333 333 334 333 333 332 332 332 333 333 333 334 333 333 333 334 333 332 331 330 330 329 329 329 329 329 329 329 329 328 328 327 327 328 328 328 329 329 329 329
336 335 334 334 334 334 335 334 334 333 333 332 331 332 332 332 332 332 333 334 333 333 333 333 333 333 333 332 332 333 332 332 333 333 333 333 333 334 333 333 331 330 329 329 329 329 329 329 328 327 327 327 327 326 326 327 327 327 327 327 328 327
336 335 334 333 332 332 333 334 333 333 332 330 331 331 331 332 332 332 333 333 332 332 332 332 332 332 332 332 332 333 333 333 333 333 332 332 332 333 334 333 331 330 329 329 329 329 329 328 327 326 325 325 324 324 324 325 325 325 325 327 326 326
335 334 333 331 330 331 333 333 332 332 330 330 330 331 331 331 331 331 331 331 331 331 331 331 332 332 331 332 332 333 333 333 332 332 332 332 332 332 333 332 331 330 329 329 330 329 329 328 327 326 326 325 324 324 323 322 322 323 324 325 325 325
333 332 331 330 330 330 331 331 331 330 329 328 330 330 331 330 330 330 330 330 330 330 330 330 330 331 330 331 332 331 331 331 331 332 332 332 331 332 332 330 330 330 329 330 330 330 329 329 328 328 327 326 325 324 322 322 322 322 322 323 324 325
331 330 329 329 329 328 328 329 329 330 329 327 328 328 329 329 329 329 330 329 329 328 328 328 328 328 328 329 330 329 330 330 331 331 331 331 330 331 331 329 328 330 330 330 330 329 329 329 328 329 327 327 327 325 322 322 324 324 322 320 322 325
329 329 328 328 327 327 327 328 329 329 329 327 327 327 327 328 328 328 328 327 327 326 326 327 327 327 326 327 329 329 329 330 330 330 330 330 330 330 329 327 327 329 329 329 328 328 328 328 327 328 327 327 327 325 323 323 324 324 322 320 321 324
328 327 327 326 325 325 326 328 329 329 328 327 327 327 326 326 326 326 325 324 324 324 325 326 326 326 325 325 328 329 329 330 330 330 330 330 331 331 329 326 328 329 328 328 326 326 327 327 327 327 326 325 323 323 325 325 324 323 321 321 321 322
326 325 325 324 324 324 324 326 328 329 328 327 326 326 324 324 323 323 322 322 322 321 323 324 324 326 325 324 327 329 329 329 329 330 329 329 330 331 330 328 328 328 327 327 326 325 326 326 326 327 326 325 324 324 326 325 324 324 322 322 322 321
325 324 324 324 323 323 322 323 326 328 327 325 324 324 323 322 322 322 321 321 321 321 322 323 324 326 326 324 326 327 327 327 328 328 328 328 329 330 330 329 328 327 326 326 325 324 325 327 327 326 326 326 325 326 327 324 324 326 324 323 323 323
324 324 324 324 322 322 321 323 325 325 325 325 324 323 322 322 322 321 321 321 320 320 321 322 323 324 324 325 325 324 324 324 325 326 326 328 329 329 329 329 328 327 327 326 325 325 325 326 327 327 326 325 325 325 325 325 326 327 327 326 324 324
322 324 324 323 323 322 322 324 326 325 325 324 323 321 320 321 321 321 321 321 320 319 319 320 321 322 323 324 323 321 321 322 323 325 325 326 327 328 328 328 328 328 327 326 326 326 325 326 326 326 326 326 326 325 324 325 325 325 328 329 326 322
322 324 325 323 323 323 323 324 326 325 323 321 319 318 319 320 321 320 320 320 319 319 318 319 319 321 322 323 321 320 320 321 323 324 325 325 325 325 325 325 326 327 327 327 326 326 326 326 327 327 327 326 326 326 325 325 325 323 325 328 327 323
324 325 325 324 324 324 323 324 324 323 321 319 318 318 319 321 320 320 320 320 319 318 318 318 318 318 320 320 320 319 320 320 322 323 323 324 323 323 322 322 324 324 325 326 325 326 325 325 325 325 326 326 326 326 324 322 323 324 323 322 323 320
324 326 325 324 324 324 323 323 323 321 320 318 317 318 320 322 320 320 320 319 319 318 317 317 316 317 318 319 319 318 319 320 320 321 322 322 322 321 321 321 322 323 323 322 322 322 322 323 324 324 324 325 325 323 320 317 317 319 318 317 317 316
324 324 323 322 323 323 322 322 322 320 319 318 317 317 319 320 320 320 319 319 318 317 316 315 315 316 317 316 316 315 315 318 320 320 320 321 321 321 321 321 322 322 320 318 316 316 318 320 322 322 320 320 319 317 315 314 313 313 313 313 313 313
323 323 322 322 322 322 321 321 321 320 319 318 317 316 317 318 320 320 319 319 317 314 314 314 314 314 313 313 313 311 310 314 318 318 318 319 319 319 320 320 321 320 318 315 314 314 315 316 317 316 314 313 313 313 313 312 312 312 312 312 311 311
323 323 322 322 322 322 321 320 320 320 318 318 318 317 316 316 318 320 319 319 315 312 312 313 313 313 312 311 311 310 309 312 313 313 313 313 314 314 314 315 317 318 317 314 312 313 314 313 313 312 311 311 311 311 311 311 311 311 312 311 311 310
323 322 321 321 321 322 320 319 320 319 317 318 318 317 316 314 315 318 319 317 314 311 311 313 313 312 312 311 310 310 311 312 311 310 308 307 307 306 306 307 309 311 311 309 308 310 311 311 310 309 308 307 308 307 307 306 306 308 310 311 310 309
324 322 320 320 321 321 319 318 319 319 318 319 318 317 317 315 314 316 318 316 313 310 311 312 312 312 312 311 310 311 312 312 311 310 306 305 304 304 303 303 303 304 304 303 305 307 309 309 307 305 304 304 304 304 303 303 304 306 309 309 309 308
324 322 320 320 319 318 319 318 318 319 319 319 319 318 318 316 314 316 317 316 313 311 312 311 311 312 312 311 310 311 311 311 312 311 309 306 305 303 303 303 303 303 302 302 302 305 306 306 305 304 305 305 305 305 305 306 306 307 308 308 307 307

ECMWFFLT2_925_thetae_021.txt.gz
Theta_e
339 340 340 339 338 338 337 335 336 336 335 336 336 334 330 330 330 331 332 333 332 333 333 333 332 332 331 330 330 330 329 328 329 331 331 331 330 329 327 327 326 326 325 325 325 324 324 328 330 331 331 333 334 334 332 331 331 330 331 330 330 330
339 340 341 340 339 339 338 337 338 337 336 337 336 333 330 330 331 332 333 333 333 333 333 334 333 333 332 331 330 329 329 328 327 328 329 330 331 330 328 327 327 326 325 324 325 324 325 327 329 330 331 333 334 334 333 332 331 330 331 330 330 328
340 341 341 341 340 339 339 338 339 338 337 337 336 333 332 332 332 333 334 334 334 333 333 333 332 331 331 331 330 328 328 327 326 326 326 328 329 330 329 328 327 326 325 324 325 324 326 327 327 330 331 333 334 334 333 332 331 331 330 329 329 327
341 342 341 341 341 340 339 339 338 338 338 337 336 333 333 334 334 334 335 334 334 334 333 333 332 330 330 330 329 328 328 327 326 325 323 325 327 329 330 330 328 327 326 326 325 325 327 327 327 329 331 332 334 333 333 332 331 331 330 329 327 326
340 341 340 340 340 339 339 339 338 338 338 336 335 334 333 335 334 334 334 334 335 335 333 333 332 331 330 330 330 330 329 327 326 323 321 324 326 327 329 330 328 327 326 326 325 324 326 327 327 329 331 331 333 333 332 332 331 331 330 329 327 324
338 340 339 339 339 339 338 338 338 338 337 336 336 335 334 335 334 334 334 334 335 336 334 334 333 332 331 330 330 330 327 324 323 322 322 325 327 326 327 329 329 328 326 325 324 324 325 325 327 329 330 331 333 332 332 332 331 329 329 328 327 324
337 338 338 339 339 339 338 338 338 337 336 335 335 336 335 335 334 334 334 335 335 335 335 334 334 333 332 330 329 328 326 323 323 324 324 326 329 330 328 328 328 327 325 323 324 325 326 324 326 328 329 330 331 331 331 332 331 329 328 328 327 325
337 337 336 336 337 338 338 338 337 336 335 335 335 337 336 334 333 334 335 334 334 335 335 334 333 333 332 332 331 330 329 327 326 325 326 327 330 331 330 329 327 326 325 325 326 328 328 326 325 327 328 330 330 330 330 330 330 329 328 327 327 325
335 335 331 331 335 337 337 337 337 336 335 335 336 337 336 334 333 334 334 334 334 334 334 334 333 332 332 333 333 332 331 330 330 329 328 330 330 331 332 330 328 327 326 327 329 330 328 326 326 327 327 330 330 329 330 330 329 329 328 327 327 326
334 333 328 331 335 337 338 337 336 335 335 335 336 337 336 334 333 333 333 333 333 334 334 333 332 332 332 334 333 333 333 332 332 332 331 331 331 331 331 330 328 328 328 329 330 330 329 328 326 327 328 329 330 330 330 330 329 329 328 327 327 327
336 335 333 335 337 337 338 336 333 333 334 335 336 336 334 334 334 334 334 334 333 333 333 332 332 332 333 333 334 334 334 333 333 333 332 332 332 332 332 330 327 327 329 330 330 329 330 329 328 328 328 329 330 330 330 330 329 329 328 327 326 327
337 337 335 336 337 337 336 334 333 335 335 335 336 335 334 334 335 335 335 334 334 334 333 333 334 333 333 334 334 335 334 334 334 333 333 333 333 333 332 331 328 327 328 329 329 329 330 329 329 328 328 329 329 328 329 330 330 329 328 328 327 326
336 336 336 336 336 336 335 335 335 336 335 336 336 335 334 335 335 336 335 334 335 335 334 335 334 333 333 333 333 334 335 334 334 333 332 333 333 333 332 332 330 329 329 329 330 330 330 329 329 329 328 328 328 328 329 330 330 329 329 329 328 327
336 337 337 336 336 335 335 336 336 336 336 336 335 335 335 336 335 336 335 334 335 334 334 335 335 332 332 333 332 333 334 333 333 332 332 333 333 333 332 332 331 330 330 330 330 330 330 330 329 329 328 327 327 328 329 330 330 330 329 329 329 328
336 337 336 335 336 336 337 336 337 337 337 337 336 336 337 336 335 334 333 333 334 334 334 334 333 331 331 333 332 333 334 333 332 331 333 332 333 333 332 333 331 330 330 329 330 330 329 330 328 329 328 328 328 327 329 330 330 330 330 330 330 329
337 337 337 336 337 337 337 337 338 337 337 338 337 337 336 335 335 334 333 333 333 333 332 332 330 328 330 333 332 333 333 332 331 332 333 333 333 333 333 332 331 331 330 329 329 329 328 328 328 329 329 329 328 328 328 330 330 330 329 329 329 329
338 338 337 338 338 338 339 339 338 337 337 337 337 336 336 335 334 333 333 332 332 332 330 331 330 328 330 332 331 333 333 331 331 332 333 333 333 333 333 333 332 331 330 329 329 329 328 328 328 328 329 328 329 328 329 330 330 330 330 329 329 329
339 339 338 338 339 339 339 339 337 337 337 337 336 335 334 333 333 332 332 332 332 332 330 331 331 330 331 331 331 332 332 331 331 331 332 332 333 333 332 333 332 331 330 330 330 329 328 328 328 328 328 328 328 328 328 328 329 329 329 328 328 328
340 340 338 338 340 339 338 337 337 337 336 335 334 332 331 331 331 331 331 332 331 331 331 331 331 331 330 331 331 332 332 331 331 331 331 331 333 333 333 333 333 332 330 330 330 329 328 328 328 327 327 327 328 328 328 327 328 328 327 327 327 327
340 339 339 339 340 338 337 336 336 336 334 332 331 330 331 331 331 331 331 332 331 330 330 330 331 330 330 331 331 332 332 332 332 332 332 332 332 333 332 332 332 332 331 329 329 328 327 327 327 327 327 326 326 326 325 325 326 326 326 326 325 326
340 340 340 339 339 337 336 335 334 335 332 330 330 330 330 330 330 330 330 330 330 330 330 330 330 330 330 331 331 332 332 332 332 332 332 332 331 331 331 331 331 331 331 330 329 328 327 326 326 327 327 326 325 324 324 324 324 323 323 324 325 325
339 340 339 339 337 336 335 334 334 333 330 328 329 329 329 328 329 329 329 329 329 329 329 330 329 328 329 331 331 331 331 331 331 331 331 331 330 330 330 330 330 330 330 330 329 328 326 326 328 328 328 327 326 326 325 325 325 323 321 322 324 325
339 339 338 337 335 334 333 333 332 331 328 327 328 329 328 328 328 329 328 327 327 327 328 328 327 327 328 329 330 330 330 330 331 330 330 330 330 330 329 329 330 329 329 329 328 327 326 326 328 327 328 328 327 328 327 326 326 324 321 322 324 326
339 338 337 336 334 333 332 332 331 329 327 326 327 328 328 328 328 327 325 325 325 326 327 327 325 325 325 326 328 328 329 329 330 330 330 330 330 329 329 329 329 329 329 329 328 326 325 326 326 326 327 327 325 327 327 326 327 324 323 324 325 326
337 338 336 335 334 332 332 332 330 328 327 327 327 328 327 327 326 325 323 323 322 324 326 326 324 323 322 322 324 326 328 328 328 329 329 329 329 329 329 329 329 329 329 330 328 325 324 324 324 325 326 326 325 326 327 326 326 325 324 325 325 325
335 337 336 334 333 331 331 330 328 327 328 328 327 327 327 325 324 323 322 321 320 321 323 325 324 323 321 321 323 325 326 326 327 328 328 328 328 327 327 328 328 328 329 329 327 326 325 324 324 324 325 325 326 326 326 326 326 325 325 324 323 322
334 335 335 334 332 330 330 330 327 326 326 327 327 325 324 323 322 322 320 319 320 320 322 324 324 322 322 322 323 324 325 325 326 326 327 328 327 327 327 327 328 328 328 327 327 327 327 326 326 325 325 324 323 323 324 325 326 326 324 320 318 318
333 334 334 334 331 330 329 329 327 325 325 325 325 323 322 321 321 320 319 319 320 320 321 322 322 323 323 321 321 321 322 324 324 325 327 327 327 327 327 327 327 327 327 327 326 327 327 327 327 327 326 324 323 322 323 324 325 326 324 319 316 315
331 332 332 332 330 330 329 327 326 325 325 325 324 322 322 321 320 319 319 319 320 320 320 320 320 321 323 321 320 319 320 323 325 325 326 326 327 327 327 328 327 327 327 327 326 326 327 327 327 327 326 326 325 325 324 324 324 325 324 321 317 315
329 330 330 330 329 329 328 327 325 324 324 325 324 322 321 320 319 318 318 318 319 319 319 319 319 320 321 320 319 319 319 323 325 324 324 324 324 325 326 327 327 327 327 327 326 326 326 327 327 327 326 327 326 326 326 326 325 324 323 321 319 316
328 328 328 328 328 328 326 325 325 324 324 324 323 322 321 320 319 318 317 317 318 318 318 319 318 319 319 319 318 318 318 321 324 323 322 322 321 322 323 324 324 325 326 326 326 326 325 325 326 326 326 327 326 326 325 325 324 323 322 320 318 316
326 326 326 325 324 324 324 324 324 323 323 323 323 322 320 319 318 318 318 317 317 317 317 318 318 318 318 318 318 317 317 319 323 323 321 321 320 321 321 320 320 321 323 324 324 324 325 325 325 325 325 323 321 321 321 320 320 320 320 319 317 316
324 324 323 322 322 322 322 323 323 323 323 322 322 320 319 318 318 318 318 317 317 317 317 317 318 318 318 317 316 316 317 320 322 322 321 320 320 320 319 317 317 318 319 322 323 323 323 323 323 321 319 317 316 317 316 315 315 315 316 316 315 315
324 321 320 320 320 321 321 322 322 323 323 322 321 319 318 317 317 318 318 318 317 317 317 317 318 317 315 314 313 315 318 320 321 321 320 320 320 320 318 317 317 316 317 319 320 319 318 319 318 316 315 315 314 314 312 311 311 311 312 312 312 313
321 319 320 320 321 321 321 322 322 323 322 322 321 319 318 317 314 315 318 318 318 316 315 315 316 314 312 311 311 314 318 318 318 318 318 318 319 318 317 316 317 315 314 315 315 315 314 314 313 313 313 311 310 310 309 309 309 309 310 310 311 313
318 319 321 322 321 321 322 321 321 323 322 322 321 318 318 318 314 315 317 318 317 314 312 313 314 312 312 311 310 312 315 315 314 314 313 314 315 316 316 316 316 314 312 313 312 311 310 308 307 307 306 305 306 307 307 307 308 307 307 307 309 311
319 322 323 322 321 321 322 320 318 322 321 320 319 316 317 318 316 315 317 317 317 312 310 312 313 312 312 311 310 309 310 311 310 309 308 308 309 312 314 314 312 310 310 310 309 306 305 304 303 302 302 302 304 307 307 307 308 307 307 307 308 309

ECMWFFLT2_925_thetae_024.txt.gz
Theta_e
342 342 343 340 338 339 339 338 338 338 337 336 335 332 331 333 333 333 332 332 334 337 337 335 335 333 331 330 331 330 330 331 332 331 331 328 327 326 326 326 325 325 325 324 324 323 323 323 326 329 332 334 333 334 336 336 335 334 333 332 333 330
343 343 342 338 338 339 339 339 339 338 337 337 335 332 332 334 335 335 332 334 338 340 339 337 337 336 335 333 330 329 329 330 332 332 331 330 329 327 327 325 325 325 325 323 325 327 325 326 328 330 332 333 334 335 335 336 334 334 333 333 333 327
342 341 341 340 340 340 338 338 337 336 336 337 335 333 334 336 337 337 336 339 340 339 338 339 338 337 337 335 331 328 328 327 328 329 330 330 329 329 328 327 325 324 324 324 327 330 329 329 330 331 332 333 335 336 335 335 334 334 332 332 332 325
341 340 342 342 341 340 338 337 336 335 337 338 336 336 337 337 339 339 339 340 339 338 338 339 337 335 335 334 331 328 327 325 325 325 326 329 329 329 330 329 326 324 326 328 329 329 329 330 331 332 333 335 336 335 334 334 334 333 332 332 330 324
341 340 340 340 340 341 339 338 338 338 338 338 337 338 338 339 340 340 339 339 339 338 338 338 336 335 335 335 334 332 330 329 329 327 326 330 331 330 331 331 328 328 330 330 329 328 329 330 331 333 334 335 336 335 334 333 333 333 333 333 328 323
340 339 338 339 340 340 339 340 340 339 339 338 338 339 339 340 340 339 339 339 339 338 338 338 338 337 336 336 335 335 334 333 333 330 328 331 332 331 332 333 331 330 330 329 329 328 329 330 330 331 332 336 336 335 334 333 334 333 334 333 326 321
340 338 338 340 340 338 337 338 338 339 339 337 337 338 339 340 339 339 339 339 339 338 337 337 338 337 336 336 336 336 335 333 332 331 330 332 333 331 330 332 331 330 329 329 329 328 328 329 330 331 331 334 336 335 334 333 334 333 334 334 327 321
339 338 340 340 340 338 337 336 335 338 338 335 335 337 338 339 338 339 339 339 339 338 337 336 337 336 336 336 336 336 335 333 332 332 332 333 334 333 331 331 330 329 329 329 329 328 328 329 330 331 331 332 333 334 334 333 334 334 333 334 330 322
338 338 340 340 340 339 338 337 335 337 337 336 336 336 338 339 339 339 339 339 338 338 337 335 334 334 336 338 337 337 336 335 334 333 332 334 335 334 333 331 329 329 329 329 329 329 328 329 329 330 331 331 332 333 335 334 335 334 333 334 332 324
338 338 339 339 338 337 337 337 336 336 336 336 337 337 338 339 339 339 339 338 337 338 337 336 335 335 336 337 337 337 336 336 336 334 333 334 335 335 334 332 330 329 329 329 329 329 328 328 329 330 331 331 331 332 333 334 334 333 332 333 332 327
338 338 338 337 337 337 337 336 335 335 336 337 337 339 339 338 339 339 338 338 336 336 335 334 334 333 334 336 336 335 334 335 335 334 334 334 334 334 334 333 331 330 330 330 330 328 328 328 328 329 329 330 331 331 332 333 333 333 333 333 334 331
338 338 336 336 338 337 337 336 335 336 337 338 339 339 339 338 339 338 337 336 335 334 333 333 332 331 333 335 334 333 333 333 333 334 333 333 332 333 334 333 331 331 331 331 330 329 328 328 329 329 329 330 330 330 330 331 332 332 333 333 333 333
337 338 336 337 339 339 338 338 338 338 338 340 340 339 339 338 338 337 335 335 334 332 332 332 331 331 332 333 333 334 334 334 334 333 333 332 332 332 333 333 331 332 333 332 331 330 329 329 329 329 329 329 329 329 329 330 331 332 334 333 333 334
337 337 337 338 339 339 339 338 337 338 339 340 339 338 338 336 336 336 334 334 332 330 330 331 330 330 332 332 333 334 334 334 334 334 334 333 333 332 332 334 332 331 332 333 332 331 330 330 330 330 330 329 329 330 329 329 330 331 331 332 333 334
337 336 337 338 339 339 338 338 338 338 339 339 339 338 337 336 336 335 334 334 332 330 330 331 330 330 331 332 333 334 334 334 334 334 334 334 334 333 333 334 333 331 332 333 334 332 332 332 331 331 331 330 329 329 329 330 330 330 329 330 332 333
339 336 337 339 338 338 337 338 339 339 338 339 338 337 337 336 335 334 334 334 333 332 331 331 330 330 331 332 333 334 334 334 334 334 334 334 334 334 335 334 334 333 332 333 333 332 333 333 333 333 332 332 331 331 331 332 332 330 330 331 331 332
339 338 338 339 338 339 339 339 339 338 338 338 337 337 336 335 335 334 334 334 334 333 332 332 331 331 331 332 333 334 335 334 333 334 334 334 334 334 335 334 334 334 334 333 333 332 333 333 333 333 333 334 333 332 333 334 333 333 332 332 330 330
339 339 339 339 339 340 340 338 338 337 337 337 336 335 334 333 334 333 333 334 334 333 333 333 332 332 332 332 333 333 333 333 333 334 334 333 334 335 335 335 335 335 334 333 333 332 332 333 332 333 333 333 331 331 333 333 333 333 332 331 329 328
338 340 340 339 340 339 339 338 337 337 336 335 334 333 332 332 332 332 333 333 333 333 333 333 333 333 332 332 333 333 333 333 332 334 334 333 334 334 334 335 335 335 334 334 333 333 333 333 333 332 333 332 330 330 332 332 332 332 330 330 330 329
338 341 340 339 339 339 338 337 336 336 335 334 333 333 331 332 331 331 332 332 332 332 332 333 333 333 333 333 333 333 333 333 332 333 333 333 333 334 333 334 335 334 334 334 333 333 333 333 332 332 332 331 331 331 331 331 331 331 330 331 331 330
339 340 340 339 339 339 337 336 335 335 334 333 333 332 331 331 331 331 331 330 331 331 332 332 332 333 334 333 333 333 333 333 333 332 333 332 333 334 333 333 334 333 333 333 333 333 333 333 333 332 332 331 331 331 330 329 330 330 329 330 330 330
341 340 340 339 338 338 336 335 334 334 333 331 331 331 330 331 331 330 330 330 330 330 331 331 331 333 334 333 333 333 332 332 332 333 333 332 333 333 333 333 333 332 332 333 332 332 332 332 332 331 332 331 330 329 330 329 329 328 328 328 328 329
341 340 340 339 337 336 335 335 334 333 332 331 331 331 330 330 330 330 330 330 330 330 330 330 330 330 332 332 333 333 333 332 333 333 333 332 332 332 332 333 332 332 333 332 331 331 331 331 331 331 332 330 329 329 329 330 329 327 327 328 328 327
340 340 339 338 336 335 334 335 335 334 333 332 331 331 330 330 329 328 328 329 329 329 329 329 329 329 329 330 331 332 333 333 332 332 333 333 332 332 332 332 331 332 332 331 330 330 330 331 331 332 331 329 329 329 328 329 329 327 327 327 328 327
340 339 338 337 335 335 334 335 335 333 332 332 331 331 330 329 328 326 325 325 327 328 329 328 328 327 327 328 328 329 330 330 331 331 332 332 332 331 331 331 331 331 331 331 331 329 329 330 331 332 331 330 329 328 328 329 329 328 328 327 327 326
340 338 337 337 335 335 335 334 334 332 331 331 331 330 330 329 327 325 323 322 323 327 328 327 327 326 326 327 327 327 326 327 329 329 330 331 331 331 330 331 331 330 330 331 331 330 329 329 329 330 331 330 329 328 328 329 327 327 327 326 325 324
339 338 338 337 335 335 335 334 333 332 331 330 330 330 330 328 327 325 323 321 323 326 327 326 326 326 326 326 327 327 327 327 327 328 328 329 329 330 330 330 330 330 330 330 330 330 329 329 329 329 329 330 329 329 328 328 327 326 326 324 322 321
339 339 338 337 336 336 335 334 334 332 330 329 330 330 329 328 326 324 323 323 323 324 326 326 326 326 325 325 326 326 326 327 327 327 327 327 328 329 329 330 330 330 330 330 329 328 329 329 330 330 329 329 329 329 328 328 328 327 325 322 320 320
339 339 338 337 337 336 335 334 333 332 331 330 329 328 327 326 325 324 323 323 324 324 325 325 325 326 325 324 324 324 325 327 327 326 326 327 328 329 330 331 331 330 330 330 329 328 328 328 329 330 330 329 329 328 328 328 328 327 325 322 320 319
338 338 337 337 337 336 335 334 333 331 331 330 328 327 326 325 324 323 323 323 324 323 324 324 324 325 325 324 324 323 324 326 326 325 325 326 327 328 329 329 330 330 330 330 329 329 329 328 329 329 329 329 329 328 328 328 327 327 326 323 321 319
337 336 336 336 336 335 334 333 332 331 331 330 329 327 326 325 324 323 322 323 322 322 323 323 323 323 324 323 323 322 323 325 326 325 325 324 324 325 326 327 328 329 330 330 330 329 329 329 329 328 328 328 328 328 328 328 327 326 326 325 322 320
334 334 335 335 334 334 333 333 333 331 331 330 329 327 326 324 323 322 322 321 321 321 322 322 322 322 322 322 321 321 323 324 325 324 324 323 322 323 323 325 326 327 328 329 329 329 329 329 329 329 328 328 327 327 327 326 326 325 324 323 322 321
331 332 333 333 333 333 333 332 332 331 330 330 329 327 326 324 322 322 321 321 320 320 320 321 322 321 321 321 320 321 323 323 323 323 323 322 322 322 322 322 323 325 326 327 328 328 329 329 329 327 326 325 324 325 324 324 324 323 322 321 321 320
326 328 330 332 332 331 331 330 329 330 330 329 329 328 325 323 322 322 321 321 320 320 320 320 322 321 320 320 320 321 323 323 323 323 322 322 321 321 321 320 321 322 323 324 325 326 327 326 325 324 322 322 321 321 320 319 318 318 319 319 319 319
324 324 325 328 329 328 328 326 325 327 330 329 328 327 325 323 322 321 321 321 320 319 319 320 320 320 319 319 320 321 322 321 321 321 321 321 320 320 320 319 319 320 320 321 321 322 322 322 322 321 319 318 316 315 314 313 313 313 313 314 315 315
326 324 323 325 325 325 324 322 321 325 329 329 327 326 324 322 321 321 320 319 319 318 319 319 319 318 318 319 319 319 319 318 318 317 318 319 319 319 319 318 317 317 318 318 318 318 318 318 318 318 316 314 313 313 312 312 312 312 312 312 313 313
326 324 322 323 324 324 323 321 321 323 326 327 325 324 325 324 322 321 320 319 318 318 318 319 318 318 318 318 317 317 316 316 314 314 314 316 316 317 318 317 316 315 316 316 315 315 315 315 315 314 314 313 312 313 313 313 313 313 313 312 312 313

ECMWFFLT2_925_thetae_027.txt.gz
Theta_e
342 341 341 341 340 339 338 339 340 338 336 335 332 328 327 330 332 333 333 331 330 333 334 334 334 333 332 332 333 332 332 332 329 327 326 325 325 325 325 324 324 323 322 322 322 324 327 329 329 330 333 334 331 335 338 336 335 333 332 332 334 327
340 339 340 340 339 338 337 339 339 338 336 334 332 329 330 333 334 335 333 333 335 337 336 335 336 333 332 333 332 331 332 332 331 330 328 326 325 324 324 323 323 323 321 321 323 325 326 328 329 331 333 333 333 336 337 335 334 333 332 332 332 323
340 340 341 339 339 339 338 339 338 337 336 335 332 330 332 335 337 337 335 336 338 338 336 337 338 335 334 334 331 330 332 332 333 332 330 328 326 325 324 323 322 321 321 323 329 331 329 329 329 330 333 334 335 337 336 335 334 332 332 333 331 320
341 341 342 339 339 340 339 339 338 336 336 336 333 333 335 336 337 336 337 338 338 338 336 336 337 336 334 334 330 328 328 330 331 330 330 331 330 328 326 326 323 321 325 328 332 332 330 332 331 331 333 335 336 337 336 334 333 331 331 332 328 318
342 341 339 339 339 339 338 338 338 336 337 336 334 336 336 335 336 336 337 338 337 336 336 336 336 336 334 334 332 329 327 327 330 330 329 332 333 331 330 330 326 325 330 331 331 330 330 331 332 333 334 335 336 337 335 333 333 332 332 332 323 316
341 340 339 340 339 339 338 338 337 336 336 335 335 336 335 335 337 336 336 336 335 335 335 335 335 334 333 334 334 332 331 331 332 331 328 332 334 333 333 333 331 330 332 330 329 330 330 331 332 333 334 335 336 336 334 333 333 332 333 330 319 317
339 340 339 338 339 338 338 337 335 335 335 335 336 337 336 336 336 336 336 336 335 334 334 334 334 334 333 334 334 333 333 333 333 332 329 331 333 333 332 333 332 332 330 329 329 328 329 330 332 332 334 336 336 335 334 333 333 332 333 328 318 317
339 340 338 336 337 338 337 337 335 336 338 338 338 339 338 337 337 336 336 335 335 334 333 333 334 335 333 333 332 332 332 332 332 332 331 331 332 332 331 332 331 330 328 329 329 328 328 329 330 331 333 335 336 335 334 334 334 334 333 330 322 318
338 339 340 338 339 338 339 339 336 338 340 339 339 339 338 337 336 335 334 333 333 333 333 333 334 334 334 333 332 333 332 332 332 331 331 331 331 331 331 331 330 329 329 330 329 328 329 329 329 331 331 333 335 334 334 334 334 334 333 332 328 321
338 338 340 339 339 339 339 339 338 338 340 338 338 338 337 336 335 334 334 333 333 334 335 334 334 334 334 334 333 334 334 334 333 331 331 331 331 331 331 330 329 329 330 330 329 328 329 329 329 331 331 331 333 334 333 333 334 333 332 333 330 322
337 338 339 338 338 338 337 338 338 338 339 337 335 335 336 335 334 333 333 333 333 334 334 334 335 334 335 334 333 333 333 333 333 333 332 331 331 332 332 331 330 329 330 330 329 328 328 328 329 330 331 330 332 332 333 333 333 333 332 332 331 326
337 338 338 336 335 336 338 339 338 337 336 334 333 334 336 335 334 333 334 333 334 334 333 333 335 335 335 336 335 333 333 334 334 333 332 331 331 332 332 331 330 329 330 331 330 328 327 328 328 328 330 330 331 331 332 332 332 333 332 332 332 331
337 337 338 336 335 336 337 337 335 334 334 334 335 335 334 334 335 335 335 334 333 333 333 334 335 334 335 336 335 333 334 335 334 333 332 331 331 332 332 331 331 331 331 331 330 329 328 329 329 329 329 329 330 330 330 332 330 332 333 332 331 332
338 336 336 337 336 336 336 334 333 333 334 335 335 335 334 335 336 336 336 334 334 334 334 334 334 333 334 335 335 334 334 334 334 333 332 331 331 331 331 330 330 331 332 331 330 330 329 329 331 330 330 329 329 329 330 330 331 332 333 332 331 331
338 336 335 336 336 335 334 334 334 333 335 334 334 336 336 336 337 336 336 335 334 334 334 333 333 333 334 334 335 335 334 333 334 334 332 331 330 330 330 330 330 330 330 331 330 330 329 330 330 330 331 330 329 330 330 330 331 331 331 332 332 330
338 336 336 336 336 334 334 335 335 334 335 336 337 338 338 336 336 336 336 335 334 335 334 333 333 333 334 334 335 334 334 333 333 333 332 332 331 330 330 331 331 330 329 329 330 330 331 331 331 332 331 331 332 331 330 330 330 329 329 329 330 330
335 335 335 334 335 334 333 334 334 335 336 337 338 337 336 335 335 334 334 334 335 335 334 334 333 332 333 334 334 334 333 332 332 332 331 332 332 331 332 332 331 330 330 330 330 330 332 333 333 334 334 334 334 332 331 332 330 329 329 329 328 330
334 335 334 334 335 335 334 334 335 337 337 337 336 334 333 333 333 333 333 334 335 335 334 334 334 333 333 334 334 333 332 332 332 331 330 331 331 332 332 332 331 330 330 330 329 330 332 333 333 333 334 335 335 333 332 332 331 330 331 331 330 331
334 336 335 335 336 335 337 338 337 337 336 335 334 332 332 332 332 333 333 334 334 334 334 334 334 334 334 334 333 333 333 333 332 331 331 331 330 331 332 331 331 330 330 330 329 330 332 332 332 333 334 335 334 334 333 332 331 331 332 332 331 331
335 336 335 336 335 334 337 339 337 335 334 333 332 332 332 331 332 333 333 333 333 333 333 334 334 334 334 334 334 333 333 332 332 332 332 331 331 331 331 331 332 331 330 330 329 330 332 332 332 332 333 333 333 334 332 331 331 330 331 331 331 331
336 337 336 334 333 334 337 336 335 333 332 331 330 331 330 330 331 331 331 332 332 332 333 333 334 334 335 335 335 334 334 333 333 333 333 332 332 332 332 332 333 332 330 330 330 330 331 331 331 331 332 333 332 332 331 330 329 329 329 330 330 330
336 337 337 335 333 336 336 332 333 333 330 329 330 329 328 328 328 329 331 331 331 332 332 332 333 334 335 335 334 334 334 334 334 333 333 333 332 332 332 332 332 332 331 330 330 330 331 330 330 330 332 332 331 330 330 329 329 328 329 329 329 329
337 337 336 335 334 336 334 333 334 332 330 330 330 329 328 327 327 328 330 331 331 331 331 331 331 333 333 334 334 334 333 333 334 333 332 332 332 331 331 332 333 331 330 330 330 331 332 331 329 329 330 330 330 330 330 330 329 329 330 330 329 328
338 337 336 334 333 334 336 335 334 332 331 330 329 328 328 328 327 326 328 330 330 331 331 329 329 330 330 332 333 334 333 333 333 333 332 331 332 331 331 331 332 330 329 330 331 332 333 333 331 329 329 329 329 330 330 330 330 329 329 330 329 328
335 334 334 335 332 334 337 336 334 334 332 329 329 329 327 327 325 324 325 327 328 330 329 329 328 328 328 329 330 330 331 332 333 333 332 331 330 331 331 331 332 331 330 331 331 331 333 333 331 331 330 329 328 329 330 329 329 329 328 328 327 327
333 333 334 333 332 334 336 335 334 332 330 330 331 330 328 326 325 324 323 324 327 329 328 328 328 327 327 328 328 328 328 329 330 331 332 331 331 331 331 332 332 331 330 332 331 331 332 332 331 331 330 330 330 330 329 328 328 328 327 327 326 325
333 333 334 332 333 335 334 333 333 331 330 331 331 330 328 327 325 323 321 323 326 328 327 326 326 326 327 328 328 328 328 327 327 328 329 329 330 331 331 330 332 331 331 332 332 331 331 331 330 330 330 329 330 330 329 328 328 328 327 325 324 323
334 332 332 332 335 336 333 332 331 330 330 329 329 329 328 327 324 322 323 323 324 326 327 326 326 327 327 327 327 327 328 327 327 325 326 326 329 330 330 330 331 331 331 332 333 332 331 331 330 330 331 329 329 329 329 328 327 328 328 325 323 323
333 330 330 333 336 336 332 332 332 330 329 328 328 329 327 325 324 323 325 324 324 326 326 326 326 326 326 326 326 326 327 327 327 326 325 325 329 331 331 332 331 331 332 332 332 331 331 332 330 329 330 328 328 328 328 328 326 325 327 325 322 322
328 327 330 334 335 334 333 333 333 330 329 328 328 328 326 325 324 324 325 325 325 325 324 324 325 325 325 325 325 326 327 327 327 326 325 326 327 330 331 332 332 332 332 332 332 330 328 329 329 328 328 328 328 329 328 328 326 325 326 325 322 322
326 328 331 333 332 333 333 333 332 330 329 329 328 327 326 326 325 324 324 324 325 325 324 324 324 325 325 324 324 325 327 327 326 325 325 325 325 326 327 329 331 331 331 331 332 329 326 326 327 328 328 328 328 328 328 328 327 326 326 325 322 323
329 329 331 330 330 331 332 332 331 330 329 329 328 327 326 326 324 324 324 324 324 324 324 323 324 324 324 323 322 324 326 326 326 325 325 324 324 324 324 326 328 330 330 331 331 329 327 327 329 328 328 327 326 327 327 326 327 326 326 325 323 323
329 330 329 330 331 330 329 331 330 329 329 330 329 327 325 325 324 323 323 323 322 322 322 323 324 323 323 323 322 323 325 325 325 325 325 324 323 323 323 324 326 327 329 329 329 330 329 329 330 329 327 326 325 327 326 325 326 325 325 324 322 321
328 328 329 330 330 329 328 330 329 328 329 329 329 327 325 324 323 322 322 322 322 322 322 323 323 323 322 322 323 324 324 324 324 324 323 322 322 322 322 323 324 325 326 326 328 329 329 328 328 326 325 324 324 324 323 322 323 323 322 322 320 319
327 326 327 329 328 328 330 330 328 328 329 329 329 327 325 323 323 323 322 322 322 321 322 323 323 321 321 322 323 324 323 323 322 322 321 320 320 321 322 321 322 322 322 323 325 325 326 325 324 322 321 320 320 319 317 317 317 318 319 319 318 318
326 326 326 327 327 328 331 330 328 328 329 329 328 326 324 323 324 323 322 321 321 321 321 322 321 319 320 322 322 322 321 321 320 320 321 320 320 321 321 319 319 319 319 319 320 321 321 321 320 318 317 316 315 315 314 314 314 315 315 315 316 315
326 325 326 325 326 328 331 330 330 329 330 330 327 326 324 323 322 322 321 320 320 321 321 321 320 319 320 320 320 318 318 317 317 318 319 320 320 320 319 318 318 318 318 317 317 317 317 317 317 316 315 314 314 315 315 315 315 314 314 314 314 315

ECMWFFLT2_925_thetae_030.txt.gz
Theta_e
337 336 336 338 338 335 333 333 334 335 335 335 334 330 328 328 329 330 331 333 334 336 335 334 334 333 333 333 334 334 333 330 327 326 325 324 324 323 322 321 321 321 322 323 327 330 331 330 330 332 332 332 334 336 337 334 332 334 334 333 329 326
338 338 337 339 338 334 333 336 337 336 336 334 330 329 330 332 333 333 332 333 335 335 333 335 335 334 334 334 333 333 332 330 328 326 325 324 324 323 322 321 320 320 321 321 322 325 328 330 330 332 332 331 333 336 336 333 332 333 333 331 328 325
339 339 338 339 337 334 336 338 337 337 336 331 329 332 334 335 336 334 332 334 335 332 332 335 334 335 336 335 333 332 333 331 331 330 327 326 325 325 324 323 321 320 321 321 322 325 326 328 329 331 333 331 333 337 336 333 332 332 333 331 327 324
340 339 339 339 336 335 337 338 338 337 336 332 331 335 335 336 337 334 333 335 335 333 334 335 335 335 336 333 331 331 332 333 332 332 330 330 329 327 326 326 323 320 323 326 327 330 329 329 329 331 332 332 334 337 335 333 332 332 332 330 327 323
340 340 340 339 336 336 336 337 338 337 336 335 335 336 336 336 337 334 333 334 333 333 334 336 335 335 335 334 332 329 330 331 332 332 331 331 332 331 329 329 327 324 327 330 331 332 332 331 330 330 332 333 335 337 335 332 332 332 332 330 324 321
341 340 339 339 338 336 336 338 337 337 337 337 337 337 337 336 336 335 334 333 331 332 333 334 334 334 333 334 334 332 331 332 333 333 330 330 333 332 331 332 332 329 330 332 332 332 331 332 332 331 333 335 336 337 335 332 332 332 332 328 320 319
341 340 339 339 339 337 337 338 336 337 338 337 338 337 337 336 336 335 333 332 329 330 333 332 332 334 333 333 334 334 334 334 333 332 329 329 332 332 332 333 333 332 332 332 331 329 329 330 332 332 333 335 336 336 334 332 332 332 332 325 317 319
341 339 339 339 339 338 338 338 338 337 335 335 336 335 335 336 336 335 333 332 330 331 333 332 332 334 333 333 334 333 333 333 332 332 330 329 330 331 332 332 332 332 331 331 329 328 329 329 331 332 333 335 335 335 334 332 333 333 330 322 317 321
341 340 339 339 339 339 338 338 339 338 335 334 333 333 335 336 335 335 335 334 332 333 333 333 334 335 333 333 334 332 332 332 331 331 330 330 331 331 331 331 331 331 330 330 329 329 328 329 330 331 332 334 335 334 333 333 333 333 328 321 319 323
340 339 338 339 339 339 338 337 338 337 336 334 334 334 335 335 335 336 336 335 334 332 333 334 335 335 335 333 333 332 333 332 332 332 330 331 331 331 331 331 330 329 329 330 330 328 328 328 329 330 331 333 334 332 331 332 333 333 329 324 321 323
338 338 339 340 338 338 338 337 337 336 336 335 335 335 336 336 335 335 334 334 333 331 333 334 334 335 335 334 333 333 336 335 334 334 331 331 331 332 332 331 330 328 329 330 329 328 327 328 329 329 330 331 332 332 331 331 332 334 332 327 321 323
338 339 340 340 339 339 338 336 335 336 337 336 335 336 337 336 334 333 333 333 333 333 334 334 334 334 334 335 334 334 336 336 336 334 332 332 331 332 332 331 330 329 329 330 329 327 327 328 328 329 331 330 330 331 331 330 331 332 332 328 324 322
339 339 339 339 338 338 338 337 336 337 337 336 335 336 336 335 333 333 333 333 333 334 334 334 335 335 334 335 334 333 335 335 335 333 333 332 331 332 332 331 331 330 330 330 330 328 328 329 328 328 329 329 329 330 331 330 330 329 331 331 326 323
339 338 338 337 337 337 338 339 338 337 336 335 334 335 335 334 334 334 335 335 335 335 334 334 334 334 333 334 333 333 335 334 333 332 333 331 332 332 332 332 332 331 331 331 330 329 329 329 328 328 328 329 329 329 330 330 330 329 330 332 330 327
339 339 337 337 336 335 336 337 336 335 335 336 335 334 334 335 336 336 336 335 335 336 335 334 334 333 333 333 333 334 334 334 333 333 332 331 332 332 332 332 331 331 332 331 331 330 329 328 328 329 328 329 330 329 330 330 331 330 330 331 331 331
337 337 338 337 336 335 335 334 333 334 335 335 335 335 334 336 337 336 337 336 336 336 335 334 334 333 333 333 333 333 333 333 334 333 332 332 332 332 331 331 330 330 330 330 331 330 329 329 329 328 328 330 332 331 330 330 330 331 330 331 332 333
335 336 337 336 335 335 334 334 334 334 334 333 334 334 334 336 337 336 336 336 335 335 334 334 333 333 333 333 333 333 333 333 333 333 332 332 332 331 331 330 330 330 329 329 330 329 328 329 329 329 329 331 332 332 331 330 329 330 330 330 331 332
335 335 336 335 334 334 335 334 334 332 331 332 333 332 334 335 335 334 335 335 335 335 335 335 334 333 333 333 332 332 332 332 332 332 331 331 333 332 331 330 330 330 330 330 330 329 328 329 330 328 329 331 332 332 332 330 329 329 330 331 331 331
336 336 336 334 333 333 333 333 332 331 331 332 332 331 333 333 333 333 333 334 334 335 335 335 334 334 333 332 332 332 331 332 332 331 331 331 332 332 331 331 331 331 330 330 330 329 328 329 329 328 329 331 330 331 331 331 332 332 332 333 331 330
336 335 336 334 333 332 331 331 331 331 332 331 331 331 331 331 332 333 333 334 334 334 334 334 334 334 334 333 333 332 331 331 332 331 330 330 331 330 330 330 331 331 330 330 330 329 329 329 329 328 329 330 330 330 330 331 333 332 333 333 331 331
336 335 336 336 334 332 332 332 331 332 333 332 331 331 331 331 332 332 332 333 333 333 334 334 334 334 334 333 332 332 332 331 331 331 331 330 330 330 330 330 330 330 330 331 331 330 330 330 328 328 329 329 330 329 330 331 332 332 332 333 332 331
336 335 336 336 333 331 332 332 332 332 332 330 330 331 331 330 330 331 331 333 333 332 333 333 334 334 333 333 332 332 332 332 331 331 331 330 331 331 330 330 330 330 330 331 331 331 330 331 328 328 329 329 330 330 329 329 330 331 330 330 332 331
336 335 336 334 332 334 334 333 332 331 330 329 330 329 328 328 328 329 331 332 332 332 332 332 333 334 334 333 333 333 332 331 331 331 331 331 331 331 330 331 331 331 332 332 331 330 330 331 329 329 330 330 331 331 331 330 329 329 329 329 329 330
337 335 335 334 334 335 334 332 331 330 329 330 329 327 327 326 327 330 331 331 331 331 330 330 331 331 332 333 333 333 332 331 331 331 332 332 331 331 330 331 331 332 333 331 331 330 329 330 329 329 331 331 331 332 333 333 330 328 328 328 328 327
337 335 335 334 334 334 333 330 330 329 329 329 327 327 327 326 326 328 329 330 330 330 329 328 328 329 330 331 331 332 332 332 332 331 331 331 331 331 329 329 331 332 332 330 330 328 329 330 330 329 330 331 331 333 334 332 331 329 327 326 327 326
336 336 334 333 334 334 331 330 330 328 327 328 328 328 326 325 324 325 327 329 330 329 329 328 327 327 329 329 329 330 330 331 331 331 331 331 331 331 331 330 330 331 331 330 329 327 328 330 331 331 330 330 331 332 331 330 332 332 328 325 326 326
335 335 332 332 332 332 329 330 330 329 328 331 330 328 326 324 323 323 325 328 329 328 327 327 327 328 328 329 328 328 329 329 329 329 330 330 330 331 331 331 331 330 330 330 329 328 328 329 331 332 332 331 330 329 329 329 331 331 329 327 324 322
334 333 331 331 330 329 329 329 329 329 330 331 331 329 327 324 322 322 323 326 327 327 326 326 327 328 328 327 327 328 327 328 327 327 328 328 329 331 330 330 330 330 330 330 330 329 328 328 330 331 331 331 331 329 328 328 329 329 328 327 324 322
334 332 331 330 329 328 328 328 328 327 329 330 330 328 327 324 323 323 324 325 326 327 327 326 326 326 326 326 327 327 327 327 326 326 326 327 329 331 331 331 330 331 331 331 330 328 328 328 328 329 329 329 329 329 329 329 328 327 327 326 325 323
332 331 329 327 327 328 327 326 327 327 328 328 328 327 325 324 324 325 325 325 325 325 324 325 326 326 325 326 326 327 327 327 326 326 326 327 329 330 331 331 331 331 331 331 330 329 329 329 327 327 328 327 327 328 328 328 327 326 326 325 325 323
331 330 328 325 326 327 326 327 327 327 328 328 328 326 324 325 324 325 325 325 326 325 324 324 325 326 325 324 326 327 327 326 326 325 326 326 326 327 329 330 331 332 331 331 329 327 328 329 328 327 327 327 327 326 326 326 327 327 326 325 325 323
330 329 327 327 327 326 326 327 327 328 328 328 328 326 325 325 324 325 325 325 326 326 325 324 325 325 324 323 325 326 325 325 325 325 325 325 325 325 327 328 329 330 330 330 328 326 328 329 328 327 326 325 326 325 325 325 326 327 325 325 325 323
329 327 327 329 327 324 326 327 327 328 329 328 327 326 326 325 324 325 325 324 324 323 323 324 325 324 323 323 325 325 325 325 325 324 324 323 323 324 326 327 327 328 329 329 328 327 328 328 327 326 325 326 325 324 325 325 325 325 324 324 324 322
329 328 328 329 327 325 326 327 328 329 329 329 327 326 326 325 324 324 323 323 323 323 323 324 324 323 323 324 324 323 324 324 324 323 323 323 323 323 324 325 325 326 327 327 327 327 327 326 325 325 325 325 326 325 324 323 323 323 322 324 324 320
328 330 330 330 328 327 327 328 328 329 329 329 327 325 325 324 324 323 322 323 323 322 324 324 323 322 323 324 324 323 323 323 323 321 320 322 323 322 322 323 323 324 325 325 325 325 324 323 321 322 321 320 320 321 322 322 322 322 321 322 321 317
329 330 330 329 329 329 328 328 329 328 328 329 327 325 324 324 324 323 322 323 322 322 324 323 321 321 323 324 323 322 322 321 321 321 321 321 322 320 320 320 320 321 322 322 322 322 320 319 317 317 316 315 315 315 317 318 317 317 318 318 318 316
330 331 330 329 329 329 328 329 329 328 329 328 327 325 324 324 324 323 322 322 322 323 322 321 320 321 322 321 320 320 319 319 320 320 321 321 321 319 318 319 319 318 318 318 318 318 317 316 315 315 315 315 315 315 314 314 314 315 315 315 315 316

ECMWFFLT2_925_thetae_033.txt.gz
Theta_e
334 330 332 334 331 329 331 333 335 334 335 336 336 335 334 332 331 329 329 330 332 333 332 332 333 334 334 333 333 333 332 330 327 324 323 322 323 323 322 320 320 321 322 323 328 331 330 329 331 332 332 335 335 337 335 334 334 332 330 329 327 325
333 331 333 334 332 333 334 335 335 336 336 335 334 332 330 329 328 327 328 330 331 331 331 332 332 332 331 332 332 332 331 329 327 325 324 324 325 325 322 320 319 320 321 321 324 330 330 329 331 332 332 334 335 337 336 333 332 332 330 329 327 326
334 333 335 335 334 336 336 335 336 336 334 332 331 329 328 328 328 327 328 330 330 329 331 332 332 332 331 332 332 331 331 330 329 329 327 326 326 326 325 322 320 320 321 320 321 325 329 330 331 332 331 334 335 336 335 332 332 332 330 328 327 327
335 335 336 336 334 335 336 336 336 334 332 331 330 330 329 329 328 328 330 331 330 329 331 332 334 336 334 332 331 331 331 331 331 330 329 328 327 327 326 324 321 322 324 323 323 325 327 328 329 331 331 332 334 336 335 332 332 331 329 327 327 329
335 336 336 336 334 335 337 337 335 332 331 331 331 331 331 330 329 329 331 332 331 330 332 332 334 336 335 333 330 330 330 330 330 331 330 330 330 329 327 326 323 324 328 328 329 330 329 328 329 330 330 331 332 336 335 332 332 330 329 327 326 328
337 337 337 336 334 336 338 337 335 332 330 332 332 332 332 331 330 331 332 333 333 333 334 334 333 335 335 333 330 328 328 328 329 331 331 330 331 332 330 330 327 327 330 330 332 332 331 331 330 330 329 330 332 335 334 332 332 330 329 325 324 326
338 338 338 336 335 337 338 336 335 333 331 332 332 333 332 333 332 332 333 334 335 335 335 335 335 335 335 334 331 328 328 329 330 332 332 329 330 332 331 332 331 330 331 331 332 331 330 330 332 331 330 331 333 334 332 332 331 330 328 323 322 326
339 338 338 337 337 337 337 336 335 333 332 332 332 333 333 334 333 334 335 334 335 335 335 335 335 334 334 333 331 330 330 331 332 332 332 330 329 330 331 332 332 331 331 331 331 330 329 329 331 331 331 333 333 333 332 330 329 330 328 321 321 326
340 339 338 338 337 337 336 335 334 334 334 333 333 333 334 335 335 335 335 333 333 333 333 334 333 333 332 332 332 332 332 332 333 332 331 331 329 330 331 331 331 331 331 330 329 329 328 328 330 330 331 332 332 332 331 330 329 328 325 319 320 325
340 339 338 338 337 336 335 334 334 334 335 335 334 334 335 335 335 335 334 332 331 332 333 332 331 332 333 332 333 333 332 332 332 331 330 330 330 330 330 330 330 331 330 329 329 329 328 328 329 328 329 331 329 329 331 331 327 323 321 319 321 325
339 339 339 338 338 335 334 334 334 334 335 335 334 335 335 336 335 335 334 333 332 332 333 332 330 332 333 332 333 333 332 332 332 332 331 331 331 330 330 331 330 330 329 329 330 328 328 329 328 327 328 329 330 330 331 332 329 323 322 321 323 328
339 339 339 338 338 336 335 334 334 335 334 334 335 335 336 336 335 335 335 334 333 332 333 333 332 333 334 333 333 333 333 334 333 333 333 331 331 331 331 331 330 329 328 329 329 328 328 328 328 328 328 329 330 330 330 331 331 328 324 322 325 328
339 339 338 337 337 337 336 335 334 335 335 335 336 336 336 336 334 333 333 333 332 332 332 333 332 333 334 334 334 334 335 336 335 335 334 332 331 331 332 331 330 330 329 329 329 329 328 328 328 327 328 328 328 329 330 332 332 329 324 323 324 325
339 339 338 336 336 337 336 335 335 336 335 336 337 336 336 335 333 333 333 333 332 332 333 332 332 333 333 333 334 334 335 336 336 336 334 332 331 332 334 333 332 331 330 331 330 329 329 328 328 327 327 327 328 328 329 330 331 329 326 323 323 323
339 339 338 337 336 337 336 335 336 337 337 337 336 335 335 334 333 333 333 333 333 333 333 332 333 334 333 333 333 333 334 334 335 335 333 332 332 332 333 333 333 332 331 331 330 329 328 328 329 329 329 328 328 328 328 329 330 332 328 325 324 324
339 339 339 338 337 336 336 336 336 337 336 335 334 333 334 334 334 334 335 334 334 334 334 333 333 333 333 332 332 332 332 333 334 334 332 332 332 332 333 332 332 331 330 330 330 329 328 328 329 330 330 329 328 329 329 329 330 332 330 328 328 327
338 338 338 337 336 336 337 337 336 335 334 334 334 334 334 335 336 336 336 335 334 335 334 334 334 333 333 332 331 332 332 333 334 334 333 332 331 332 332 332 331 330 329 329 329 329 328 328 329 330 331 330 329 329 330 329 330 331 331 330 331 330
337 337 337 337 335 335 336 335 335 335 334 335 335 334 335 336 336 336 336 335 334 334 334 333 333 333 333 332 332 332 332 333 333 333 332 332 331 331 331 331 331 330 330 329 329 328 327 327 329 330 331 331 329 328 329 330 330 331 331 331 331 331
338 337 336 336 335 335 335 334 334 334 333 334 334 334 335 335 335 335 335 334 334 334 334 333 333 333 332 332 333 333 332 332 333 333 332 332 332 331 331 330 330 330 330 329 329 328 327 328 328 330 331 331 330 328 330 330 331 331 331 331 331 331
337 336 335 335 335 334 333 333 334 333 333 333 333 333 334 334 333 333 333 334 334 334 334 334 333 333 333 332 332 332 332 332 332 332 331 332 331 331 330 330 329 330 330 329 329 329 329 329 328 329 329 330 330 329 330 330 330 331 331 330 331 331
335 334 334 334 334 332 332 333 332 331 331 331 331 332 332 333 333 333 332 333 333 333 333 334 334 334 334 333 332 332 332 331 331 331 331 331 331 330 330 330 330 330 330 329 329 329 329 329 328 329 329 329 329 328 328 330 330 330 330 329 330 330
334 334 333 333 331 330 329 331 331 331 330 330 331 331 332 332 332 332 332 332 332 332 332 333 334 334 334 333 332 332 331 331 331 331 331 330 330 331 330 330 331 330 331 330 330 330 330 329 329 329 328 328 329 328 328 329 329 330 330 330 330 330
334 333 333 332 330 329 330 332 331 331 330 330 331 331 331 331 331 331 332 332 331 330 330 331 333 333 333 332 332 332 332 331 331 331 331 331 331 331 330 331 331 331 332 331 330 330 330 329 329 329 329 331 332 331 329 327 327 328 329 330 330 330
335 334 333 333 332 331 333 332 331 330 329 329 329 329 328 327 328 330 330 331 331 331 330 331 331 331 332 332 332 331 332 332 331 331 331 331 330 330 330 330 332 332 332 330 330 329 330 329 329 329 331 332 331 331 331 328 326 327 327 327 328 328
335 334 333 333 333 332 332 331 329 329 328 327 327 326 327 327 328 330 330 330 330 330 329 330 330 330 330 330 331 331 331 331 331 331 331 331 331 330 330 330 331 332 332 330 330 329 330 329 329 329 331 331 331 333 333 328 326 327 326 326 327 327
335 335 334 333 332 331 330 329 329 328 327 326 325 325 326 328 328 329 329 329 329 328 327 328 331 330 328 328 328 329 330 330 330 331 331 330 331 330 330 330 330 331 331 331 330 329 330 329 328 330 330 331 332 333 331 328 328 328 326 326 326 326
334 335 334 333 331 329 328 329 328 328 326 324 326 326 325 325 326 328 329 329 329 328 326 327 327 327 327 328 328 328 329 330 330 330 331 330 330 330 330 330 330 331 330 330 329 329 329 329 329 331 331 330 329 329 329 329 329 327 325 324 324 325
334 334 334 333 329 326 326 328 328 326 326 326 327 325 323 323 325 328 328 328 327 326 325 326 327 325 326 328 328 328 328 328 328 329 330 329 330 330 330 330 330 331 331 330 329 329 330 330 330 331 331 330 328 328 328 327 325 323 323 322 322 323
333 333 333 332 328 326 327 327 325 325 328 329 327 324 322 322 324 325 324 325 327 326 325 326 327 326 326 326 327 327 327 327 327 328 328 328 330 330 330 329 330 330 330 330 330 329 329 330 331 330 330 329 329 328 328 327 325 322 321 322 323 322
332 332 333 331 329 329 328 326 325 327 330 329 327 325 323 322 322 323 323 325 327 327 325 326 326 325 326 327 326 326 326 326 326 327 328 329 330 330 329 329 329 329 330 330 329 328 328 329 330 330 330 329 328 328 328 327 325 322 321 321 323 322
331 331 332 329 328 328 328 326 326 329 329 328 327 326 324 322 322 324 325 326 325 324 324 325 325 325 325 326 326 326 325 325 326 326 327 327 328 328 329 330 330 330 330 330 329 328 328 328 328 329 330 329 328 327 327 326 325 323 322 321 322 321
330 331 330 327 326 328 328 327 327 328 328 328 327 325 324 322 323 325 325 325 324 324 323 324 324 324 324 325 325 326 326 325 325 325 325 325 326 327 329 331 331 330 330 329 328 328 328 327 327 328 328 328 328 328 327 326 324 323 322 320 321 320
330 329 328 326 327 327 327 326 327 328 328 327 326 325 323 322 324 325 324 325 326 324 324 324 324 323 323 324 325 325 324 324 324 324 324 325 325 327 328 329 330 329 328 327 327 328 327 327 326 326 326 327 327 327 327 326 324 323 322 320 320 319
330 329 327 326 327 326 325 327 328 328 328 327 326 324 323 322 324 324 324 325 325 324 324 324 324 322 322 324 325 325 324 324 324 323 323 324 325 326 327 328 328 328 327 327 327 327 326 325 325 325 325 325 325 326 326 326 324 323 323 322 320 318
329 328 327 326 326 326 327 327 328 328 328 327 326 325 324 323 324 324 324 324 323 323 324 324 323 322 323 324 324 324 323 323 323 323 322 323 325 325 326 327 327 327 327 326 326 326 326 326 325 324 324 324 324 325 325 326 324 323 324 322 320 317
328 327 327 326 327 327 327 327 328 329 327 326 326 325 325 324 324 323 323 323 323 323 324 323 322 322 324 323 322 323 323 322 321 321 322 322 323 323 324 326 326 326 326 325 324 323 323 324 324 324 323 323 323 323 323 324 323 323 323 323 321 317
329 328 328 327 327 328 327 328 329 329 328 327 326 325 324 324 323 322 322 323 323 323 324 323 321 322 324 323 322 322 321 320 320 321 320 320 320 321 322 323 324 324 323 323 320 318 317 317 318 319 319 320 321 321 320 320 320 322 321 322 321 317

ECMWFFLT2_925_thetae_036.txt.gz
Theta_e
341 341 341 338 335 333 330 331 334 336 336 336 335 335 334 333 333 334 335 335 336 336 336 336 334 334 333 331 331 332 331 327 324 323 323 323 322 322 322 322 322 323 323 326 330 328 327 329 330 332 332 332 335 335 333 332 331 329 328 327 326 326
341 340 338 334 332 332 333 334 335 336 336 335 334 333 332 332 333 334 334 334 334 334 334 334 333 333 332 332 332 331 328 325 324 323 322 323 323 322 322 322 322 322 321 322 328 330 328 329 330 331 331 332 334 335 333 332 330 328 327 327 327 327
340 338 334 331 331 333 334 335 335 335 335 334 333 331 331 331 332 333 333 334 334 333 333 333 332 332 332 332 332 330 328 328 327 326 325 325 325 324 323 322 321 322 321 320 326 330 330 329 330 331 330 331 334 334 332 330 329 328 327 327 327 328
338 335 332 331 331 333 335 335 335 334 334 333 331 330 329 330 331 332 333 333 333 334 334 332 332 333 333 333 332 331 329 329 329 328 327 326 326 325 324 323 322 322 323 322 324 328 329 329 330 331 329 331 333 333 331 330 329 328 328 327 327 328
336 333 330 329 332 334 335 334 334 334 333 331 329 328 328 329 330 331 332 333 334 335 334 335 336 335 333 332 332 330 327 327 327 326 326 327 328 326 326 325 323 325 327 327 328 329 329 329 329 330 329 330 333 334 331 329 329 328 328 327 326 327
336 333 329 329 333 334 334 334 334 334 332 329 327 327 329 329 329 330 332 333 334 335 334 337 338 335 332 330 329 326 324 325 326 326 326 328 330 329 329 328 326 328 330 331 331 331 330 330 330 331 330 330 333 334 331 328 328 328 327 326 326 328
336 334 331 331 334 333 333 334 334 333 330 328 328 329 329 329 328 331 333 333 334 334 334 336 336 335 332 329 327 324 324 325 327 329 329 328 329 330 331 331 330 331 331 332 331 329 329 330 330 331 330 330 333 334 331 329 328 328 327 327 328 329
336 335 333 333 334 333 333 334 333 332 330 329 330 331 331 329 329 332 334 333 333 332 333 334 334 334 332 330 327 325 326 328 330 332 331 330 329 329 330 332 332 332 332 331 330 328 328 329 330 331 331 331 333 333 332 330 328 327 327 328 330 330
336 335 334 333 333 334 334 334 332 331 331 330 331 333 332 331 331 332 334 333 332 332 333 333 333 334 333 333 331 329 330 331 332 332 331 330 329 329 330 331 331 331 330 329 329 328 328 330 331 331 330 331 332 333 332 329 327 326 327 329 330 330
336 337 335 333 333 335 335 334 332 331 331 331 332 333 333 333 332 333 334 332 332 333 333 334 334 334 334 333 332 332 332 332 332 332 330 330 329 329 330 330 331 330 329 329 329 328 328 330 331 331 330 331 332 331 332 329 327 325 326 328 329 330
337 337 336 334 334 335 335 334 333 331 331 332 333 333 333 334 334 334 334 331 331 333 333 333 333 333 333 332 333 333 332 332 332 331 331 330 329 329 330 330 330 330 328 329 329 327 328 328 329 330 328 330 330 331 331 327 325 324 324 327 329 330
338 338 336 335 335 335 335 335 334 332 333 332 332 333 333 334 334 333 334 331 330 331 332 332 332 332 332 332 332 333 332 332 332 332 332 332 330 330 330 330 330 329 329 329 329 327 327 327 328 328 328 330 330 331 330 325 322 322 323 325 328 329
338 338 337 335 335 335 335 335 334 333 334 333 332 334 334 334 334 333 333 332 330 331 331 332 331 331 333 333 333 333 333 333 333 333 333 332 330 331 331 330 330 330 329 329 328 328 327 327 328 328 328 330 330 330 330 326 323 322 322 324 326 329
338 337 337 336 336 335 335 334 333 334 334 333 333 334 334 334 334 333 333 332 332 332 332 332 333 333 333 333 333 333 333 333 334 334 334 332 331 331 331 331 332 331 330 329 328 328 327 327 327 328 328 329 329 330 331 330 327 324 322 323 326 328
338 337 337 337 336 335 334 333 333 334 334 333 333 333 333 334 333 332 332 332 332 331 332 333 334 334 333 333 333 333 334 334 333 334 334 333 331 331 332 332 333 332 330 329 328 328 328 327 327 327 327 328 329 330 331 332 329 326 323 323 325 325
338 338 337 337 336 335 334 334 333 334 333 334 334 333 333 333 333 332 332 332 332 332 332 334 334 334 334 334 333 334 334 334 334 334 334 333 332 331 332 332 333 331 330 329 328 328 328 327 327 327 327 328 328 329 331 331 330 327 323 323 323 323
338 338 337 336 336 336 335 334 334 334 333 334 334 334 334 333 332 332 332 332 332 333 333 334 333 333 334 333 333 333 333 333 334 334 334 333 332 331 331 332 331 330 329 329 328 328 329 329 328 328 328 328 328 329 330 330 331 328 324 324 324 324
338 338 337 336 336 336 335 335 335 334 334 334 334 334 333 333 333 333 333 333 332 333 334 333 333 333 333 332 332 332 332 333 333 334 333 332 331 331 331 331 331 329 329 329 328 328 329 330 330 329 328 329 329 328 329 330 331 330 327 326 326 325
338 337 337 337 336 336 335 336 336 335 334 334 334 334 334 334 334 334 334 334 333 334 334 333 333 333 333 332 332 332 333 332 333 333 333 332 331 331 331 331 330 329 329 329 328 327 328 330 330 329 329 329 329 329 329 331 331 330 329 329 328 327
338 338 337 337 336 336 335 335 336 335 335 335 334 334 335 335 334 335 334 335 334 334 333 333 333 333 333 333 332 333 333 332 332 333 332 331 331 330 330 330 330 329 329 329 328 328 328 330 331 329 328 329 330 330 330 331 331 331 331 330 330 330
338 337 337 336 337 336 335 335 335 335 335 334 334 334 335 334 334 334 334 334 334 334 334 334 333 333 333 333 332 332 332 332 332 332 332 331 331 330 330 330 330 329 329 329 328 328 329 330 330 329 328 329 329 330 330 331 331 331 331 331 331 331
337 337 337 336 336 336 334 334 334 334 334 334 334 335 335 334 334 333 334 334 333 333 334 333 333 333 334 333 332 331 331 331 331 331 331 330 330 330 330 330 330 329 329 328 328 328 328 330 329 327 326 327 328 328 328 329 330 331 330 330 330 330
336 336 336 335 334 334 333 333 333 332 332 333 334 334 334 334 333 332 332 332 332 332 333 333 333 333 333 333 332 331 331 330 330 330 330 329 329 330 330 330 330 329 329 329 328 328 328 329 328 327 327 328 328 328 328 327 328 329 329 329 329 329
336 336 335 334 333 333 333 332 332 331 331 332 332 333 333 332 332 332 332 331 331 331 331 331 332 332 332 332 331 331 331 331 330 330 330 330 330 330 330 330 330 330 330 330 329 328 328 329 328 327 328 329 327 327 330 328 326 327 328 328 328 329
335 334 334 333 333 332 332 331 331 331 331 331 331 332 332 332 332 331 331 331 331 331 330 330 330 329 330 331 331 331 331 331 330 330 331 330 330 330 330 330 331 331 331 330 329 329 329 328 328 328 328 329 328 329 331 328 325 326 326 327 327 328
334 333 333 333 332 331 331 331 331 330 329 329 330 330 330 331 330 330 330 330 329 329 330 330 329 326 327 328 329 331 330 330 330 330 330 330 330 330 330 330 331 332 332 330 329 330 329 328 328 329 329 329 330 331 329 326 327 328 325 325 326 327
333 333 333 332 331 331 331 331 331 329 328 327 327 327 328 329 329 328 329 329 327 327 328 329 328 327 326 326 327 328 329 330 330 330 330 330 330 330 329 329 330 331 332 331 329 329 330 328 329 330 330 330 329 328 327 326 328 328 326 325 325 326
333 332 332 332 331 332 331 330 329 328 326 325 326 328 329 329 329 328 328 328 327 326 327 327 327 327 327 327 327 327 328 328 329 329 330 330 330 330 330 330 330 331 331 331 329 329 329 328 329 330 330 329 328 328 327 326 326 325 325 325 324 325
332 331 333 333 332 332 329 328 328 326 325 324 326 327 329 328 328 328 329 328 327 326 326 326 326 326 327 327 327 327 327 326 327 328 329 329 329 330 330 330 330 331 331 330 330 329 329 329 329 330 330 328 328 327 326 325 324 322 323 324 324 323
333 332 333 333 332 330 328 327 327 325 324 325 325 325 327 328 328 328 328 327 325 325 326 326 326 326 326 327 327 326 326 325 326 327 327 328 329 330 330 329 329 330 330 329 329 328 328 329 329 330 329 328 327 326 324 323 321 321 321 321 322 321
334 333 334 333 331 329 328 328 326 325 325 325 323 324 326 327 327 326 327 326 325 325 326 325 325 326 326 326 326 325 325 326 327 327 328 328 329 329 329 329 329 329 330 329 329 328 328 329 330 330 329 328 327 326 324 322 320 321 320 319 320 319
333 333 333 332 329 328 328 327 325 325 326 324 322 323 325 324 323 323 326 326 325 325 325 325 325 325 325 326 325 325 325 325 327 327 328 327 327 328 328 329 329 329 330 330 329 328 328 328 330 330 329 328 327 325 324 322 321 320 320 319 319 318
332 332 332 330 328 328 327 326 327 328 326 324 323 323 323 322 322 324 326 325 323 324 324 324 325 324 324 325 325 325 324 324 325 326 326 325 325 327 327 328 328 329 330 329 328 328 327 328 328 328 329 328 327 326 324 321 321 320 319 319 318 317
332 332 331 329 328 328 327 326 329 328 325 324 324 324 323 321 323 325 325 324 323 324 323 322 323 323 323 324 325 325 324 323 324 325 325 324 325 327 328 327 328 329 329 328 327 327 327 327 327 327 329 329 327 327 324 321 320 320 319 319 317 316
331 331 330 329 329 329 327 327 329 328 326 325 325 325 322 322 324 325 324 325 325 324 323 323 323 322 323 324 324 324 324 323 323 324 324 324 325 327 327 328 328 328 327 326 326 327 326 326 326 326 327 328 328 327 324 322 321 320 319 318 316 316
330 331 330 328 328 328 327 327 328 328 327 325 325 324 321 321 323 324 324 325 325 323 324 323 322 322 323 324 324 323 323 322 322 323 324 324 324 326 327 327 327 327 326 327 326 326 325 325 325 325 325 326 327 327 325 323 321 321 320 317 315 315
330 330 330 328 328 327 327 327 327 328 327 325 324 322 321 321 323 324 325 325 324 324 324 323 322 322 323 323 323 323 322 321 321 323 324 323 323 325 326 327 327 327 326 326 325 325 325 325 324 324 324 324 325 326 325 324 322 321 319 316 316 316

ECMWFFLT2_925_thetae_042.txt.gz
Theta_e
343 342 341 341 340 340 337 331 327 329 333 337 338 338 339 338 337 337 338 337 336 338 338 336 335 334 334 334 334 334 333 332 332 331 328 323 321 323 323 325 326 327 327 326 327 328 329 332 334 334 333 332 331 330 329 328 327 327 327 326 326 327
343 341 341 341 340 340 335 328 329 335 338 338 338 338 339 339 339 339 339 338 337 338 337 335 334 333 333 334 333 332 331 330 328 326 324 320 319 320 320 322 323 325 326 326 326 328 329 332 334 334 333 332 331 330 329 328 327 327 327 326 327 329
342 341 341 340 340 339 332 329 334 338 339 338 339 338 338 339 339 339 339 338 338 338 336 334 333 332 333 332 330 330 328 327 325 322 321 320 319 318 319 320 321 324 325 325 327 328 329 332 334 334 333 332 331 330 329 328 327 327 327 327 329 330
341 340 340 340 339 336 330 333 338 339 339 339 338 337 338 338 338 339 338 338 338 337 335 334 333 333 333 328 325 326 325 324 323 323 323 321 319 319 319 320 321 323 325 325 327 328 328 331 334 334 334 332 331 330 329 328 327 327 327 328 330 331
341 340 339 339 339 334 331 336 340 339 338 337 337 337 337 337 336 338 338 338 338 336 334 334 334 334 331 326 324 325 324 324 325 325 325 323 321 321 321 322 322 324 325 326 327 328 328 331 333 333 333 333 331 331 329 328 327 327 327 328 330 331
340 339 339 339 337 333 333 338 340 339 338 337 336 335 336 335 334 335 336 336 336 334 334 334 334 333 331 328 326 327 326 326 327 327 327 326 324 324 325 326 326 327 327 327 328 328 328 330 333 333 333 333 332 331 329 327 327 327 327 328 329 330
339 339 339 338 335 334 337 338 339 338 336 335 334 334 334 333 333 334 334 333 333 333 333 334 333 332 331 330 328 328 328 327 328 329 330 329 328 327 328 329 329 329 329 328 328 328 328 329 331 333 333 333 332 331 328 327 327 328 328 328 329 330
338 339 338 336 334 336 339 338 337 337 335 334 333 333 331 331 332 333 332 331 331 331 332 333 332 331 330 329 328 327 328 328 329 330 329 330 330 328 328 329 330 330 329 328 328 328 328 329 330 331 332 332 332 330 328 327 327 328 328 328 329 329
337 339 336 334 335 338 338 337 336 335 334 333 332 331 330 329 330 332 332 331 330 331 333 334 332 329 328 326 325 327 329 330 330 330 329 329 329 329 329 328 329 329 328 328 328 328 328 329 329 329 331 332 332 330 328 328 327 327 328 328 329 330
338 338 335 334 337 337 337 336 335 334 333 332 330 329 329 328 329 331 331 330 330 331 333 334 332 329 327 324 324 328 331 331 330 329 329 329 329 330 330 329 329 329 328 327 327 328 329 329 329 329 330 332 333 331 329 328 327 328 328 328 329 330
337 336 334 333 336 336 335 334 334 334 332 330 329 328 328 328 328 330 331 331 331 330 331 333 332 331 329 326 326 329 331 331 330 329 329 329 328 329 329 329 329 329 328 328 327 329 329 329 330 329 329 331 333 331 329 328 328 329 329 329 329 330
336 335 334 333 335 334 333 333 333 333 331 328 327 328 328 328 328 330 332 331 332 331 331 332 333 332 331 329 329 330 331 331 331 330 329 328 328 328 329 329 329 328 328 327 327 329 330 330 330 330 330 331 332 331 329 328 328 329 330 330 330 330
334 334 334 333 334 333 332 332 333 332 330 328 328 329 329 329 329 331 333 333 333 333 332 333 333 333 333 331 331 331 332 331 331 331 330 329 329 329 329 329 329 328 328 327 326 328 330 330 330 330 331 331 331 331 328 327 328 329 330 330 329 329
333 333 334 333 333 332 332 333 333 332 330 328 328 330 331 331 331 332 333 334 333 332 333 333 333 333 333 332 331 331 332 331 331 331 331 330 329 329 329 329 328 328 328 327 326 327 329 329 329 330 330 330 331 330 329 329 329 329 331 331 330 330
332 332 333 333 333 332 332 333 333 332 330 329 329 330 332 333 333 333 334 334 332 331 332 333 332 332 333 333 332 331 332 331 332 332 331 330 330 330 329 328 328 328 328 327 326 327 327 328 328 329 329 330 330 330 331 329 326 328 331 331 330 330
333 333 333 333 332 332 332 333 333 332 331 330 330 331 333 333 334 334 334 334 332 330 331 332 331 332 332 333 332 332 332 333 333 333 331 330 330 330 330 329 329 328 328 327 327 327 327 327 328 328 329 329 329 330 330 325 324 328 331 330 330 330
334 334 334 333 333 332 332 333 334 333 331 330 330 331 332 333 333 334 334 334 332 331 331 331 331 332 332 332 333 332 333 333 333 333 332 330 330 331 331 330 329 328 328 327 327 327 327 328 328 328 329 329 330 329 327 323 323 328 330 330 329 329
334 334 334 334 333 333 333 334 334 333 332 331 331 332 332 333 334 333 333 333 332 332 332 331 331 332 333 332 333 332 333 333 333 332 332 331 330 331 331 331 330 329 328 327 327 326 327 328 328 328 329 330 330 329 327 324 322 325 328 329 328 328
334 334 334 335 334 334 333 334 334 334 333 332 333 333 333 333 334 333 332 332 332 332 332 332 332 333 333 332 332 332 332 332 333 332 332 331 330 331 332 331 330 329 328 327 327 327 327 327 328 328 328 329 330 329 329 326 324 325 327 327 328 328
335 334 334 335 335 334 334 334 335 334 333 333 334 333 333 334 334 333 332 332 333 332 333 333 333 333 333 332 332 331 332 332 332 332 331 331 330 331 331 331 330 328 328 328 328 327 327 327 327 327 328 329 330 330 330 328 328 328 326 325 327 328
336 334 334 335 335 335 334 334 334 333 333 333 334 333 333 334 333 332 333 333 333 333 333 333 333 333 333 332 332 331 332 332 332 331 331 331 330 330 331 331 330 328 328 328 328 327 327 327 327 328 328 329 329 329 329 328 328 327 325 324 325 326
336 334 335 335 335 335 334 334 333 333 333 333 333 333 333 333 333 333 334 334 334 333 333 333 332 332 332 332 332 332 332 332 331 331 332 331 330 330 330 330 329 328 328 328 328 328 328 327 327 327 327 327 327 327 327 327 326 327 326 326 325 325
336 335 335 335 335 336 335 334 333 333 333 333 333 332 332 333 334 334 334 334 334 334 333 333 333 332 332 332 332 332 332 332 331 331 331 331 329 329 330 330 329 328 327 327 328 328 328 328 327 327 327 328 327 327 327 327 326 327 327 326 325 325
336 335 335 335 336 336 335 334 333 333 333 333 332 333 333 334 334 334 334 334 334 333 333 333 332 332 332 333 332 331 331 331 331 330 330 330 328 327 329 329 329 329 327 328 328 328 328 328 328 327 327 327 326 327 329 328 326 326 326 326 325 326
336 336 335 335 336 336 335 334 333 333 333 333 333 333 333 334 333 333 333 333 333 332 332 332 332 332 332 332 331 330 330 330 330 330 330 330 328 327 328 329 328 328 328 327 328 328 328 328 328 327 326 327 327 329 328 326 326 326 326 327 326 325
336 336 335 335 336 336 335 334 333 332 332 333 333 333 333 333 333 332 332 332 332 332 332 332 331 331 331 331 331 331 330 330 330 329 329 329 328 327 328 329 328 328 328 327 327 328 329 328 328 327 326 327 328 329 326 326 327 326 324 326 325 325
336 335 334 335 336 336 335 334 333 332 333 332 332 332 332 332 332 331 330 330 330 331 330 329 329 330 330 330 330 330 330 330 330 329 329 329 328 328 328 328 328 328 328 327 327 328 329 328 327 327 327 327 328 328 326 326 326 325 325 325 324 325
335 334 334 335 336 335 334 333 332 332 332 332 331 332 332 332 331 330 330 330 330 329 328 326 326 327 328 329 329 329 330 330 330 330 330 329 329 329 328 328 328 328 329 328 327 327 328 328 327 327 327 328 329 327 326 325 325 325 326 325 323 323
335 334 334 335 335 335 334 333 332 332 332 332 331 332 332 332 331 330 329 330 330 329 326 325 326 326 326 327 327 328 328 329 329 330 330 329 329 329 329 329 329 329 330 330 329 328 328 328 327 327 327 327 328 326 325 325 325 325 324 325 325 322
334 334 334 335 335 335 334 332 332 332 331 331 331 331 331 331 331 330 328 328 329 329 327 325 326 326 326 326 326 326 326 327 328 329 329 330 330 330 329 329 329 330 330 330 330 329 328 328 328 327 327 327 327 325 324 323 324 324 323 324 324 322
334 333 335 335 336 336 333 332 331 331 331 330 330 330 331 331 330 328 327 327 328 328 327 326 326 326 326 326 325 325 325 325 326 327 328 329 329 330 329 329 329 329 330 330 330 330 329 328 328 328 327 328 327 326 325 324 324 324 323 322 322 321
334 334 335 335 336 335 332 332 331 330 330 330 330 330 330 330 328 327 326 326 326 327 326 326 326 326 325 325 325 325 325 325 325 326 327 328 328 329 329 330 329 329 329 329 330 330 329 328 328 328 327 328 328 327 326 325 324 324 323 323 322 320
333 333 335 335 334 333 332 332 331 330 329 330 330 331 330 329 327 326 326 326 325 326 326 325 325 326 325 325 325 324 324 325 325 326 326 326 327 328 329 329 329 329 329 329 329 329 329 328 328 328 328 328 328 327 326 325 324 324 323 323 321 319
332 332 333 333 333 332 331 331 330 329 329 330 330 329 328 328 326 326 325 325 325 325 325 325 325 325 325 325 324 323 323 325 325 325 324 323 324 326 328 328 328 328 328 328 329 329 328 328 328 327 328 328 328 327 326 324 323 323 323 322 321 320
331 331 332 332 332 331 331 331 330 329 330 330 328 327 328 328 326 326 325 324 325 325 325 324 324 324 324 324 324 323 323 324 324 324 323 322 322 325 327 328 328 328 328 328 329 329 328 328 327 327 328 329 328 327 326 324 323 322 323 323 322 322
331 331 331 331 331 331 330 330 329 329 329 328 326 327 328 327 327 327 325 324 325 324 324 323 323 323 322 323 324 323 323 323 323 324 323 322 322 325 327 328 329 328 328 328 328 327 327 327 327 327 328 329 328 327 326 324 323 322 322 323 322 323
331 331 331 330 330 329 328 327 327 327 327 326 325 326 327 327 327 326 325 325 324 323 323 322 322 322 321 323 323 323 323 322 322 324 323 321 322 324 326 327 328 328 327 327 326 326 326 326 326 326 327 328 328 327 326 324 322 321 322 322 322 322

ECMWFFLT2_925_thetae_045.txt.gz
Theta_e
342 341 341 341 340 341 336 328 325 326 328 333 335 334 335 335 335 335 335 335 335 335 335 335 335 335 334 334 334 333 330 330 331 331 330 330 331 331 330 329 329 328 327 328 331 333 333 334 333 332 331 330 329 329 329 329 331 331 330 329 329 328
341 341 341 341 340 340 335 329 328 331 335 337 337 336 336 336 336 336 336 337 336 335 335 335 335 336 335 334 334 331 329 331 331 328 325 325 327 328 328 328 328 328 327 327 330 333 334 334 334 332 331 330 329 329 328 328 331 331 330 330 330 329
341 341 341 341 340 339 335 330 331 335 339 340 339 338 337 337 337 337 337 337 337 336 334 334 335 335 334 335 333 328 327 329 328 323 320 321 322 323 325 326 326 327 327 327 329 332 334 335 335 332 331 331 329 329 327 329 331 331 331 331 331 330
342 341 341 341 340 338 334 332 335 338 340 340 339 339 338 337 338 338 337 337 337 335 334 334 335 335 334 334 332 327 324 324 323 322 320 320 320 320 321 323 324 326 327 327 329 332 333 335 336 334 332 331 330 329 328 329 331 331 331 331 331 330
342 341 340 340 340 337 333 334 338 339 340 339 339 340 339 339 339 338 337 337 337 334 334 335 335 335 333 332 331 329 326 324 323 324 322 320 321 321 322 323 324 325 327 327 328 331 333 334 335 334 332 331 330 329 328 330 331 331 331 331 331 330
341 341 340 340 339 336 333 336 338 338 339 339 338 339 339 339 339 339 338 337 335 334 335 335 335 333 330 330 331 330 328 326 325 325 324 322 322 323 325 326 326 326 327 327 328 331 333 333 333 332 331 331 330 329 329 329 331 331 332 332 331 330
341 341 340 340 338 335 334 337 338 338 338 338 337 337 339 338 338 339 338 337 335 335 335 335 335 332 330 330 330 329 327 327 327 327 326 324 324 326 328 328 328 328 328 328 328 330 333 333 333 333 332 331 330 329 329 330 331 331 332 332 331 330
341 340 340 340 337 335 336 338 337 338 338 337 336 336 337 337 337 338 338 337 335 335 335 334 334 332 332 331 330 329 329 329 329 329 328 326 326 327 329 330 329 328 328 328 328 329 331 333 333 333 332 331 331 329 328 330 331 331 331 332 331 330
340 339 339 339 336 336 338 338 336 338 337 336 335 335 335 335 336 336 336 336 334 334 334 334 334 333 333 331 329 330 331 331 329 329 329 329 328 329 329 329 329 328 327 328 328 329 330 332 333 333 332 331 330 329 328 329 330 332 331 331 331 330
339 339 339 338 336 336 338 337 337 337 337 335 334 333 333 333 334 334 334 334 333 332 333 333 333 333 331 328 328 330 332 331 329 329 329 329 329 330 329 329 329 328 327 327 327 328 329 330 331 332 332 331 331 329 327 329 331 332 332 331 332 331
339 339 338 337 335 335 337 337 337 337 335 333 332 331 331 332 334 334 333 332 332 333 334 333 331 330 327 325 329 331 331 330 329 329 328 328 329 330 330 329 329 328 327 328 327 328 329 329 330 331 332 331 331 329 328 329 331 332 332 332 332 332
338 338 337 336 335 335 337 337 336 335 334 332 330 329 330 332 333 333 332 331 332 333 334 333 331 329 326 325 330 331 330 330 329 329 328 328 328 329 330 329 329 328 327 328 328 329 329 329 330 331 332 332 332 331 330 330 330 330 331 331 331 332
337 338 337 335 335 336 336 336 335 335 332 330 330 330 330 330 331 331 330 331 331 331 331 332 332 330 329 328 330 331 330 330 330 330 329 328 329 329 329 329 328 328 327 328 329 329 329 330 331 332 333 333 333 332 332 331 330 329 330 330 330 332
337 337 335 334 335 336 335 335 334 333 330 330 331 331 330 329 329 331 331 331 331 330 331 332 332 331 330 330 331 331 331 331 330 331 330 329 329 329 329 329 328 328 327 328 330 330 331 331 332 332 333 333 333 332 332 331 330 330 330 329 329 330
335 335 335 334 334 335 335 334 334 331 329 330 331 330 329 328 330 332 333 332 331 331 331 332 332 332 331 331 331 331 331 331 330 331 331 329 329 329 329 328 328 328 327 328 330 330 331 331 332 332 332 332 332 332 331 330 330 329 329 329 329 329
334 335 334 334 334 335 335 334 333 330 330 331 330 330 329 330 332 333 333 333 331 330 332 332 333 332 331 331 331 331 331 331 331 332 331 329 330 329 329 328 328 328 328 329 330 330 330 330 331 331 332 332 331 331 331 330 329 329 329 329 329 329
332 333 333 333 334 334 334 334 332 330 331 332 332 332 332 332 333 333 334 333 331 330 333 333 333 332 331 331 332 332 331 331 332 332 331 330 331 330 329 329 328 328 328 329 329 329 329 330 330 331 331 332 331 330 330 329 328 328 329 330 329 329
332 332 332 333 334 334 334 333 332 331 332 332 332 332 332 333 333 333 333 333 331 331 332 333 332 332 331 331 332 332 332 331 332 332 332 331 331 330 330 329 329 328 328 329 329 329 329 330 330 330 331 331 330 329 329 327 326 328 329 329 329 329
333 332 332 333 333 334 333 333 333 332 333 332 332 332 332 333 333 334 334 333 332 332 332 332 331 332 332 332 332 332 332 332 332 333 333 332 331 331 330 330 330 329 329 329 329 329 329 329 330 330 330 330 329 329 326 323 323 326 328 328 328 328
333 332 332 333 333 333 333 333 333 332 333 333 333 333 333 333 334 334 333 332 332 332 333 333 332 332 333 333 333 332 332 333 332 333 332 332 331 331 331 330 330 329 329 328 328 329 329 329 329 329 329 329 329 329 327 324 322 324 326 327 328 328
334 333 333 333 333 333 333 333 333 333 334 333 333 334 333 334 333 333 333 332 332 333 333 333 333 333 333 333 332 332 332 332 332 332 332 332 331 331 331 331 330 330 329 328 328 328 328 329 329 329 329 329 328 328 328 327 326 325 326 327 326 327
335 334 333 333 333 333 334 334 334 334 334 334 334 334 334 334 333 333 333 333 333 333 333 333 332 333 332 332 332 331 332 332 331 331 332 331 331 331 331 331 330 329 329 329 328 328 328 328 329 329 329 328 327 327 327 327 328 327 327 326 326 326
335 334 333 333 333 333 334 334 334 334 334 334 334 334 334 334 333 333 333 333 333 333 332 332 332 332 332 332 332 332 331 332 331 331 331 331 330 330 330 330 330 329 329 329 328 328 328 329 329 329 328 329 328 328 327 326 327 327 327 326 324 325
335 334 334 333 334 334 334 334 334 334 333 333 333 333 333 333 333 333 334 334 333 333 332 333 333 332 332 332 332 332 331 332 331 330 330 330 330 330 330 330 329 329 329 328 328 328 328 328 329 329 329 328 328 329 329 328 326 326 327 326 325 325
335 335 334 333 333 334 334 334 333 333 332 332 333 333 333 333 334 333 334 334 333 333 333 333 333 332 332 332 332 331 331 331 331 330 330 330 329 329 329 330 329 329 329 329 328 328 328 328 328 329 329 328 328 329 329 327 327 326 326 327 326 326
335 335 334 333 334 333 333 333 332 332 332 332 333 333 333 333 333 334 333 333 333 333 333 332 332 332 332 332 331 331 331 331 330 330 329 329 329 328 329 329 329 329 329 329 329 328 328 328 328 328 328 328 328 329 328 327 327 327 326 326 326 326
335 334 334 334 334 333 333 333 332 333 333 333 333 333 333 333 333 333 333 333 332 332 332 332 331 331 332 331 330 330 330 330 330 330 329 329 329 328 328 329 329 329 329 328 328 329 328 328 329 327 327 328 328 328 329 328 326 326 326 326 324 324
335 334 334 334 333 334 334 333 333 333 333 334 334 333 333 333 333 332 331 331 331 330 330 330 330 330 331 330 330 330 330 330 330 330 329 329 329 328 329 329 329 329 329 329 328 329 329 328 329 329 327 329 329 328 329 328 328 327 327 326 324 324
335 335 334 334 334 334 334 333 333 333 333 333 333 333 333 332 331 330 330 329 328 327 327 327 328 328 329 329 329 329 329 329 330 330 329 329 329 329 329 329 329 329 329 329 329 329 330 330 330 330 328 329 329 328 328 328 328 328 327 326 325 324
335 335 334 334 334 334 334 333 333 332 332 332 332 332 332 331 330 329 329 329 327 326 324 324 326 326 327 328 328 327 328 329 329 329 329 330 330 329 330 329 329 329 329 329 329 329 329 330 330 329 329 329 329 328 328 328 328 328 328 327 326 325
335 334 334 333 333 333 333 333 333 332 332 331 332 332 332 330 330 329 330 329 328 326 325 325 325 326 326 326 326 326 326 327 328 329 330 330 330 329 329 329 329 329 329 329 329 329 329 330 329 329 328 329 329 328 327 327 328 328 328 328 326 325
334 334 332 332 333 333 333 333 332 332 332 331 331 331 331 330 329 329 329 329 328 327 325 325 325 326 326 325 325 325 325 325 326 328 329 329 329 329 329 329 329 329 329 329 329 329 330 330 329 329 329 329 329 329 326 325 327 328 328 328 326 325
334 333 332 332 332 333 334 333 332 332 331 331 331 330 331 330 329 328 328 328 328 327 325 325 325 325 325 325 324 324 324 324 325 327 328 328 328 329 329 329 330 330 330 330 329 330 330 330 329 329 329 329 329 328 326 324 326 328 328 328 327 325
333 332 332 331 332 333 334 332 331 331 331 330 330 330 330 330 328 327 326 326 326 326 325 325 325 325 325 325 324 323 324 325 325 326 325 325 325 327 328 328 329 330 330 330 329 330 330 329 329 328 329 329 328 328 327 325 325 327 327 327 327 325
332 332 331 331 332 333 333 332 331 331 330 330 330 330 330 329 327 326 325 325 324 325 325 324 325 325 325 325 324 323 324 325 325 324 323 323 323 325 327 328 328 329 329 329 329 329 329 329 329 328 328 329 329 328 327 326 325 326 326 326 327 325
333 332 331 331 330 330 332 331 330 330 329 329 330 330 330 328 327 326 325 325 324 325 324 324 324 324 324 324 323 323 324 324 324 324 323 322 323 325 327 328 328 328 329 328 329 329 329 329 329 328 328 328 328 328 327 326 325 325 326 326 326 325
331 329 329 328 326 327 331 331 329 329 329 329 330 329 329 327 327 327 325 324 324 324 324 323 323 323 323 323 323 323 323 322 323 324 322 321 322 324 326 327 327 328 328 328 328 328 327 328 328 328 328 329 329 328 326 326 324 324 325 325 325 325

ECMWFFLT2_925_thetae_048.txt.gz
Theta_e
343 342 344 343 342 342 338 334 333 333 333 334 336 336 337 337 336 336 334 333 334 337 337 335 335 335 334 334 334 334 333 333 334 333 334 333 333 330 329 329 328 328 330 333 333 333 333 332 332 330 329 331 335 335 334 334 333 333 332 331 330 329
343 344 345 343 343 341 337 335 334 333 332 335 337 337 337 338 337 336 334 335 338 340 339 337 337 336 335 336 335 332 332 333 333 333 333 333 333 331 329 329 328 328 329 332 333 334 334 333 332 330 330 334 336 334 334 333 332 332 331 331 330 328
345 344 344 344 343 341 337 336 335 335 335 338 339 338 338 339 339 337 336 339 340 340 341 339 338 337 337 336 334 332 331 332 331 330 329 329 330 330 329 329 329 327 328 331 334 336 336 335 333 330 332 335 335 334 334 333 331 332 331 331 329 325
345 344 344 344 343 341 337 336 338 339 338 339 340 340 339 338 339 339 340 339 337 339 340 340 338 337 337 336 334 332 330 328 326 324 325 327 326 327 328 328 328 327 328 330 333 335 337 338 336 333 335 336 335 335 334 332 331 332 332 331 330 327
345 344 344 343 342 340 336 337 339 339 337 337 339 340 339 339 340 341 341 337 335 337 337 337 337 336 337 336 334 332 330 330 328 325 327 330 329 328 329 328 327 328 329 331 333 335 336 338 338 336 336 336 335 335 334 333 332 332 332 331 330 330
344 344 343 342 342 339 337 339 339 337 337 337 338 339 339 340 341 340 339 336 336 338 336 337 337 337 337 336 334 334 334 334 333 330 331 333 332 331 332 330 329 330 331 331 332 334 336 338 338 336 336 335 335 334 334 333 333 333 333 331 331 331
343 343 343 341 341 339 338 341 340 338 339 339 339 340 340 339 339 338 337 336 337 338 338 338 338 337 336 335 334 335 334 334 333 332 332 332 332 332 332 331 331 331 331 332 332 333 335 338 338 336 335 335 334 333 333 333 333 334 333 332 331 331
343 342 342 341 340 340 339 341 341 339 340 340 340 340 340 339 338 337 336 336 338 339 339 338 338 336 335 334 334 334 333 333 333 332 332 333 333 333 333 332 332 331 331 331 331 331 333 337 337 336 335 334 334 333 333 334 334 334 333 333 331 331
342 341 341 340 340 339 339 341 341 340 340 339 340 340 340 339 338 337 337 338 339 339 339 338 337 335 334 334 333 333 333 333 333 333 333 334 335 334 333 333 332 332 331 330 330 330 332 335 336 335 335 334 334 334 333 334 334 334 334 333 332 329
340 339 340 340 339 338 339 341 340 340 340 339 340 339 339 339 338 338 338 338 339 339 338 338 336 335 334 333 333 334 334 333 333 333 334 334 335 335 334 333 333 332 331 331 330 330 331 334 335 334 334 334 335 335 334 335 334 335 335 334 333 330
338 339 340 340 338 337 339 340 339 339 339 339 338 338 337 339 338 338 338 338 338 338 338 337 335 335 335 334 335 336 335 334 334 333 335 334 334 334 334 334 334 333 333 332 331 331 332 333 334 334 334 334 336 335 335 335 335 334 334 333 333 331
339 339 339 339 338 337 338 339 339 339 338 337 336 337 337 338 338 338 338 338 338 338 338 336 335 335 335 336 336 336 336 335 334 333 334 334 334 334 334 334 333 334 334 334 333 333 334 334 333 333 334 334 336 335 335 335 335 334 333 332 332 332
339 339 339 339 339 337 337 339 338 338 337 335 335 336 337 337 338 338 338 338 338 338 338 336 336 335 335 336 337 337 336 335 334 333 333 333 334 334 334 334 333 334 334 335 335 335 335 334 333 334 334 335 335 335 335 334 334 334 333 332 332 332
339 339 339 339 338 336 337 338 337 337 336 334 335 336 336 337 337 337 337 337 338 338 338 337 337 336 335 336 337 337 336 335 334 333 332 333 334 334 334 334 333 333 334 334 335 335 334 334 334 335 335 336 335 335 334 334 334 334 333 333 332 332
338 338 338 337 336 335 336 337 337 337 335 334 335 336 336 337 337 337 337 337 337 338 338 338 338 337 336 336 337 336 336 336 334 333 333 334 334 334 334 333 333 334 334 334 335 334 334 335 335 335 336 336 335 335 334 334 334 333 333 333 333 332
338 337 337 336 335 334 335 337 337 336 335 334 335 335 335 336 337 337 337 337 337 338 338 339 338 337 336 336 336 336 336 335 334 334 334 334 334 334 333 333 333 333 333 333 334 334 334 334 334 334 335 335 335 334 333 333 333 332 332 333 333 333
337 337 337 336 335 333 335 337 337 335 334 334 334 335 335 336 337 336 337 337 336 337 338 338 337 336 337 336 336 336 336 334 334 335 334 334 334 333 333 333 333 333 332 332 333 334 334 334 334 334 334 334 334 334 333 332 332 332 332 332 333 333
336 336 336 336 335 333 334 336 336 335 335 335 335 335 336 336 337 337 337 337 336 336 337 337 336 336 337 336 336 336 335 333 334 335 335 334 334 334 333 333 333 333 332 333 333 333 333 333 333 333 334 334 334 333 333 332 332 332 331 332 332 331
336 336 335 335 335 333 335 336 335 335 335 335 335 336 336 336 336 337 337 337 336 336 336 337 336 337 337 336 336 336 335 334 335 336 335 334 334 334 334 334 333 332 332 333 333 333 333 333 333 333 333 333 333 333 332 331 331 331 331 332 330 328
335 335 334 335 334 334 335 335 335 334 334 335 335 336 336 336 336 336 337 337 336 336 336 336 336 337 337 336 336 336 336 335 335 335 335 334 334 334 334 334 333 332 332 332 332 333 332 332 332 332 332 332 332 332 331 330 330 331 331 330 328 328
335 334 334 334 334 334 334 334 335 334 334 335 336 336 336 336 336 336 337 337 336 336 336 336 337 337 337 337 336 336 336 335 334 334 334 334 334 334 333 333 332 332 332 332 332 333 332 332 332 332 332 332 331 331 330 330 330 330 330 329 328 328
335 334 333 333 333 333 334 334 335 335 334 335 335 335 335 336 336 337 337 336 336 336 336 336 336 336 336 335 335 334 335 335 334 334 334 334 333 333 333 333 332 332 332 332 332 332 332 332 331 331 332 331 331 331 330 330 330 330 330 329 329 329
335 335 334 333 333 334 335 335 335 336 335 335 335 335 335 336 337 337 336 336 336 336 336 335 334 334 334 333 333 332 334 335 334 334 334 333 333 333 333 333 332 332 333 332 332 332 332 333 331 331 332 331 331 331 330 330 330 329 329 329 329 329
336 335 334 334 334 335 335 335 336 336 336 335 336 336 336 336 336 336 336 336 336 336 336 334 333 333 333 333 333 333 334 335 334 334 333 333 333 333 333 333 332 332 332 332 332 332 332 333 332 331 330 331 331 330 329 329 330 329 329 329 329 329
336 335 335 334 334 335 335 335 336 336 336 336 336 336 336 337 337 336 336 337 336 336 335 334 333 333 333 333 333 333 334 334 334 334 334 333 333 332 333 333 332 332 332 332 332 331 331 332 332 331 331 331 331 330 329 329 329 329 329 329 329 329
336 335 335 335 335 335 335 334 336 335 334 335 335 336 336 336 337 336 336 337 336 335 334 334 334 333 333 333 332 333 333 333 333 333 332 332 331 331 332 332 332 332 332 332 332 332 331 331 332 332 331 331 332 330 330 330 329 329 329 329 328 328
336 336 335 335 335 335 335 335 335 334 333 334 334 335 335 335 336 336 336 335 335 334 334 334 333 333 332 332 332 332 331 331 331 331 330 330 330 329 330 331 331 332 331 332 332 332 332 331 332 332 331 331 332 331 330 330 330 329 329 328 327 327
337 336 335 335 335 335 335 335 335 334 334 334 334 334 334 335 335 335 335 334 334 334 333 333 333 333 332 332 331 331 331 331 330 330 330 330 330 329 329 330 331 331 331 331 331 331 331 331 331 331 331 331 331 331 330 330 329 329 328 328 326 326
337 336 335 335 336 336 336 335 335 334 334 335 334 334 334 334 334 334 334 333 333 333 332 332 331 331 332 332 331 331 331 331 331 330 330 330 330 330 330 331 332 332 331 332 331 331 331 331 330 331 331 330 331 331 330 330 329 329 329 328 327 326
337 336 336 335 336 337 335 335 336 335 334 334 333 333 334 334 334 333 333 333 332 332 331 331 330 330 330 330 331 331 330 331 331 330 330 330 330 330 330 331 332 332 331 331 331 331 331 331 331 331 330 330 330 330 330 330 330 329 329 328 328 327
337 336 335 335 336 336 336 336 337 335 334 334 333 333 334 333 333 333 332 332 332 331 332 331 330 330 329 329 330 330 330 330 330 330 330 330 331 331 331 331 332 331 331 331 331 330 331 331 331 331 331 331 330 330 331 330 329 329 329 329 328 328
336 335 335 335 336 336 336 336 337 336 335 335 334 333 333 333 333 332 332 331 331 331 331 331 330 330 330 329 329 329 329 329 329 330 330 330 331 332 332 331 331 331 331 331 330 330 330 331 331 331 330 331 329 329 331 329 328 328 328 329 329 328
336 335 335 335 336 336 336 337 337 336 335 334 334 333 333 332 331 331 331 331 330 330 330 330 329 330 330 329 329 328 328 329 329 329 329 329 329 331 332 332 331 331 331 330 330 330 330 331 331 331 330 330 329 328 330 330 329 329 328 327 328 327
335 335 335 335 336 335 335 336 336 335 334 333 333 332 331 331 331 331 331 330 330 329 329 329 329 329 328 328 328 328 328 328 329 329 329 328 328 329 330 331 331 331 330 330 331 330 331 331 332 331 330 330 330 328 329 330 330 329 328 327 327 326
335 335 334 334 335 334 334 335 335 334 333 333 333 331 330 331 331 331 330 330 329 329 328 328 328 328 328 328 328 328 328 328 329 329 328 327 327 327 328 330 331 331 331 331 331 331 331 332 331 331 330 330 330 329 329 330 329 329 328 327 327 326
334 334 333 332 333 333 333 334 334 333 333 333 333 332 331 332 332 331 330 329 329 329 328 327 327 328 328 327 327 327 327 327 327 327 327 327 327 326 328 330 332 332 331 331 331 331 332 332 331 331 331 330 329 329 330 330 329 329 328 327 327 326
331 331 330 330 331 332 332 333 333 333 332 332 333 332 331 332 331 331 329 329 329 329 328 327 327 327 327 327 327 327 327 327 327 326 326 326 326 326 327 329 331 332 332 331 331 332 332 332 331 331 331 330 330 329 330 330 329 329 328 328 328 327